EW4266 Weather Reports


Display with metric or nautical units.
time (UTC)temp
F
wind
direction
speed
MPH
gust
MPH
rain 1hr
in
rain 24hr
in
rain mn
in
humidity
%
barometer
mb
20260904173226 76 15 3.0 6.0 0.00 0.00 0.00 64 1011.3
20260904173140 76 5 3.0 6.0 0.00 0.00 0.00 63 1011.3
20260904173011 76 318 4.0 6.0 0.00 0.00 0.00 66 1011.3
20260904172932 76 318 4.0 6.0 0.00 0.00 0.00 65 1011.3
20260904172738 76 5 3.0 6.0 0.00 0.00 0.00 64 1011.2
20260904172700 76 17 2.0 6.0 0.00 0.00 0.00 64 1011.2
20260904172605 76 19 1.0 7.0 0.00 0.00 0.00 65 1011.1
20260904172526 76 320 1.0 5.0 0.00 0.00 0.00 65 1011.1
20260904172331 76 320 3.0 6.0 0.00 0.00 0.00 65 1011.1
20260904172234 76 324 3.0 6.0 0.00 0.00 0.00 65 1011.1
20260904172123 76 312 3.0 6.0 0.00 0.00 0.00 63 1011.1
20260904172045 76 311 3.0 8.0 0.00 0.00 0.00 63 1011.1
20260904172008 76 331 3.0 8.0 0.00 0.00 0.00 67 1011.1
20260904171912 76 325 2.0 8.0 0.00 0.00 0.00 67 1011.1
20260904171834 76 331 3.0 8.0 0.00 0.00 0.00 67 1011.1
20260904171704 75 319 4.0 8.0 0.00 0.00 0.00 67 1011.1
20260904171619 75 318 5.0 8.0 0.00 0.00 0.00 66 1011.1
20260904171430 75 330 4.0 8.0 0.00 0.00 0.00 67 1011.1
20260904171325 75 322 4.0 8.0 0.00 0.00 0.00 66 1011.1
20260904171249 75 327 4.0 8.0 0.00 0.00 0.00 64 1011.1
20260904171216 75 319 4.0 9.0 0.00 0.00 0.00 66 1011.1
20260904171130 75 331 4.0 9.0 0.00 0.00 0.00 66 1011.1
20260904170942 75 15 5.0 9.0 0.00 0.00 0.00 67 1011.1
20260904170856 75 336 4.0 9.0 0.00 0.00 0.00 66 1011.1
20260904170706 75 25 3.0 9.0 0.00 0.00 0.00 66 1011.1
20260904170628 75 30 4.0 9.0 0.00 0.00 0.00 66 1011.1
20260904170432 75 338 5.0 9.0 0.00 0.00 0.00 66 1011.2
20260904170355 75 335 5.0 9.0 0.00 0.00 0.00 67 1011.2
20260904170258 75 336 4.0 6.0 0.00 0.00 0.00 67 1011.2
20260904170222 75 355 2.0 8.0 0.00 0.00 0.00 67 1011.2
20260904170142 75 355 2.0 9.0 0.00 0.00 0.00 68 1011.2
20260904170017 75 355 4.0 9.0 0.00 0.00 0.00 67 1011.2
20260904165933 75 346 4.0 9.0 0.00 0.00 0.00 68 1011.2
20260904165743 75 355 3.0 10.0 0.00 0.00 0.00 67 1011.2
20260904165641 75 329 4.0 10.0 0.00 0.00 0.00 66 1011.2
20260904165526 75 343 5.0 10.0 0.00 0.00 0.00 68 1011.3
20260904165449 75 342 5.0 10.0 0.00 0.00 0.00 65 1011.3
20260904165422 75 355 5.0 10.0 0.00 0.00 0.00 67 1011.3
20260904165306 75 328 4.0 10.0 0.00 0.00 0.00 65 1011.2
20260904165227 75 15 4.0 10.0 0.00 0.00 0.00 66 1011.2
20260904165043 74 28 6.0 10.0 0.00 0.00 0.00 66 1011.3
20260904164937 74 360 5.0 10.0 0.00 0.00 0.00 65 1011.3
20260904164822 74 348 4.0 11.0 0.00 0.00 0.00 66 1011.3
20260904164743 75 342 5.0 11.0 0.00 0.00 0.00 66 1011.3
20260904164705 75 335 5.0 11.0 0.00 0.00 0.00 66 1011.3
20260904164611 75 327 5.0 11.0 0.00 0.00 0.00 66 1011.4
20260904164532 75 338 5.0 11.0 0.00 0.00 0.00 67 1011.4
20260904164404 75 309 6.0 11.0 0.00 0.00 0.00 66 1011.4
20260904164318 75 321 7.0 11.0 0.00 0.00 0.00 66 1011.4
20260904164130 75 5 7.0 11.0 0.00 0.00 0.00 65 1011.4
20260904164049 75 360 8.0 11.0 0.00 0.00 0.00 65 1011.4
20260904163840 75 338 5.0 10.0 0.00 0.00 0.00 67 1011.4
20260904163723 75 268 4.0 9.0 0.00 0.00 0.00 65 1011.4
20260904163645 75 355 4.0 9.0 0.00 0.00 0.00 65 1011.4
20260904163608 75 5 3.0 10.0 0.00 0.00 0.00 65 1011.4
20260904163512 75 340 3.0 10.0 0.00 0.00 0.00 64 1011.4
20260904163434 75 22 3.0 10.0 0.00 0.00 0.00 63 1011.4
20260904163305 76 355 4.0 10.0 0.00 0.00 0.00 64 1011.4
20260904163220 76 20 4.0 10.0 0.00 0.00 0.00 63 1011.4
20260904163050 76 311 5.0 10.0 0.00 0.00 0.00 63 1011.4
20260904162950 76 333 5.0 10.0 0.00 0.00 0.00 60 1011.4
20260904162837 77 302 6.0 10.0 0.00 0.00 0.00 62 1011.5
20260904162740 77 327 6.0 10.0 0.00 0.00 0.00 64 1011.4
20260904162701 77 355 4.0 9.0 0.00 0.00 0.00 64 1011.4
20260904162607 77 337 3.0 6.0 0.00 0.00 0.00 65 1011.4
20260904162527 77 355 3.0 6.0 0.00 0.00 0.00 63 1011.4
20260904162359 77 336 4.0 11.0 0.00 0.00 0.00 65 1011.3
20260904162314 77 334 4.0 11.0 0.00 0.00 0.00 63 1011.3
20260904162145 77 29 3.0 11.0 0.00 0.00 0.00 63 1011.2
20260904162107 77 75 2.0 11.0 0.00 0.00 0.00 64 1011.2
20260904161930 77 355 2.0 11.0 0.00 0.00 0.00 61 1011.3
20260904161852 77 11 3.0 11.0 0.00 0.00 0.00 61 1011.4
20260904161701 77 324 6.0 11.0 0.00 0.00 0.00 61 1011.4
20260904161627 77 342 5.0 11.0 0.00 0.00 0.00 65 1011.4
20260904161431 77 327 4.0 11.0 0.00 0.00 0.00 67 1011.4
20260904161354 77 340 4.0 11.0 0.00 0.00 0.00 68 1011.4
20260904161258 77 44 4.0 13.0 0.00 0.00 0.00 64 1011.4
20260904161139 77 60 4.0 13.0 0.00 0.00 0.00 63 1011.5
20260904161043 77 22 4.0 13.0 0.00 0.00 0.00 64 1011.5
20260904161006 77 24 5.0 13.0 0.00 0.00 0.00 64 1011.5
20260904160928 77 9 6.0 13.0 0.00 0.00 0.00 64 1011.5
20260904160758 77 13 6.0 13.0 0.00 0.00 0.00 64 1011.5
20260904160720 77 35 6.0 13.0 0.00 0.00 0.00 64 1011.6
20260904160536 77 11 7.0 13.0 0.00 0.00 0.00 65 1011.6
20260904160451 77 5 5.0 13.0 0.00 0.00 0.00 62 1011.7
20260904160320 76 11 4.0 9.0 0.00 0.00 0.00 63 1011.8
20260904160240 76 355 4.0 9.0 0.00 0.00 0.00 65 1011.8
20260904160042 76 339 5.0 9.0 0.00 0.00 0.00 68 1011.8
20260904160005 76 342 5.0 9.0 0.00 0.00 0.00 68 1011.8
20260904155909 76 342 4.0 9.0 0.00 0.00 0.00 68 1011.9
20260904155831 76 347 4.0 9.0 0.00 0.00 0.00 67 1011.9
20260904155616 75 344 4.0 8.0 0.00 0.00 0.00 68 1011.9
20260904155525 75 344 4.0 10.0 0.00 0.00 0.00 67 1011.9
20260904155428 75 332 5.0 10.0 0.00 0.00 0.00 66 1011.9
20260904155342 75 355 3.0 10.0 0.00 0.00 0.00 65 1011.9
20260904155133 75 31 4.0 10.0 0.00 0.00 0.00 68 1011.8
20260904155048 75 15 3.0 10.0 0.00 0.00 0.00 67 1011.8
20260904154920 75 329 4.0 11.0 0.00 0.00 0.00 67 1011.9
20260904154842 75 309 5.0 11.0 0.00 0.00 0.00 68 1011.9
20260904154623 75 341 5.0 11.0 0.00 0.00 0.00 67 1011.9
20260904154526 75 360 5.0 11.0 0.00 0.00 0.00 67 1011.9
20260904154435 75 338 5.0 11.0 0.00 0.00 0.00 66 1011.9
20260904154357 75 348 6.0 11.0 0.00 0.00 0.00 65 1011.9
20260904154259 75 348 6.0 11.0 0.00 0.00 0.00 66 1012.0
20260904154124 75 343 6.0 10.0 0.00 0.00 0.00 66 1012.0
20260904154040 76 355 5.0 10.0 0.00 0.00 0.00 66 1012.0
20260904153911 76 345 4.0 10.0 0.00 0.00 0.00 64 1012.0
20260904153834 76 337 4.0 10.0 0.00 0.00 0.00 64 1012.0
20260904153707 76 341 5.0 10.0 0.00 0.00 0.00 63 1012.0
20260904153622 76 280 5.0 10.0 0.00 0.00 0.00 63 1012.0
20260904153401 76 323 6.0 10.0 0.00 0.00 0.00 64 1012.0
20260904153322 76 345 6.0 10.0 0.00 0.00 0.00 64 1012.0
20260904153129 76 355 5.0 13.0 0.00 0.00 0.00 63 1012.1
20260904153053 76 345 5.0 13.0 0.00 0.00 0.00 63 1012.1
20260904152957 76 309 6.0 13.0 0.00 0.00 0.00 63 1012.0
20260904152919 76 346 5.0 13.0 0.00 0.00 0.00 63 1012.0
20260904152748 76 360 5.0 13.0 0.00 0.00 0.00 67 1012.1
20260904152623 76 342 6.0 13.0 0.00 0.00 0.00 65 1012.0
20260904152527 77 355 8.0 13.0 0.00 0.00 0.00 62 1012.1
20260904152428 77 327 8.0 14.0 0.00 0.00 0.00 63 1012.1
20260904152353 77 317 8.0 14.0 0.00 0.00 0.00 64 1012.1
20260904152306 77 350 6.0 14.0 0.00 0.00 0.00 63 1012.0
20260904152223 77 342 6.0 14.0 0.00 0.00 0.00 63 1012.0
20260904152055 77 331 6.0 14.0 0.00 0.00 0.00 64 1012.0
20260904151948 77 338 6.0 14.0 0.00 0.00 0.00 64 1011.9
20260904151817 77 336 5.0 14.0 0.00 0.00 0.00 63 1011.9
20260904151739 77 10 6.0 14.0 0.00 0.00 0.00 65 1011.9
20260904151612 77 360 8.0 14.0 0.00 0.00 0.00 67 1012.0
20260904151524 76 55 7.0 14.0 0.00 0.00 0.00 64 1012.0
20260904151335 76 340 8.0 14.0 0.00 0.00 0.00 65 1012.0
20260904151249 76 335 9.0 14.0 0.00 0.00 0.00 66 1012.0
20260904151059 76 355 6.0 13.0 0.00 0.00 0.00 64 1012.0
20260904150937 76 343 9.0 13.0 0.00 0.00 0.00 65 1012.0
20260904150847 76 338 9.0 13.0 0.00 0.00 0.00 65 1012.1
20260904150746 76 5 8.0 13.0 0.00 0.00 0.00 64 1012.0
20260904150617 76 347 6.0 12.0 0.00 0.00 0.00 67 1012.0
20260904150530 76 346 6.0 10.0 0.00 0.00 0.00 65 1012.0
20260904150401 76 355 7.0 10.0 0.00 0.00 0.00 66 1012.0
20260904150324 76 12 7.0 10.0 0.00 0.00 0.00 67 1012.0
20260904150127 76 349 7.0 9.0 0.00 0.00 0.00 67 1012.0
20260904150031 76 16 5.0 9.0 0.00 0.00 0.00 66 1012.0
20260904145934 76 355 3.0 8.0 0.00 0.00 0.00 65 1012.0
20260904145835 76 23 4.0 8.0 0.00 0.00 0.00 65 1012.0
20260904145706 76 314 4.0 8.0 0.00 0.00 0.00 65 1012.0
20260904145623 76 319 4.0 10.0 0.00 0.00 0.00 65 1012.0
20260904145435 76 324 3.0 10.0 0.00 0.00 0.00 69 1012.0
20260904145358 76 355 2.0 10.0 0.00 0.00 0.00 69 1012.0
20260904145218 75 300 3.0 10.0 0.00 0.00 0.00 69 1012.0
20260904145119 75 20 3.0 10.0 0.00 0.00 0.00 65 1012.1
20260904144943 75 360 5.0 10.0 0.00 0.00 0.00 69 1012.0
20260904144905 75 340 6.0 10.0 0.00 0.00 0.00 66 1012.1
20260904144715 75 5 5.0 9.0 0.00 0.00 0.00 69 1012.0
20260904144631 75 5 5.0 9.0 0.00 0.00 0.00 69 1012.0
20260904144501 75 346 3.0 11.0 0.00 0.00 0.00 72 1012.0
20260904144423 75 331 3.0 11.0 0.00 0.00 0.00 73 1012.0
20260904144252 74 26 5.0 11.0 0.00 0.00 0.00 71 1012.1
20260904144212 74 341 5.0 11.0 0.00 0.00 0.00 71 1012.1
20260904144055 74 9 4.0 11.0 0.00 0.00 0.00 69 1012.1
20260904144008 74 336 5.0 11.0 0.00 0.00 0.00 68 1012.1
20260904143819 74 5 6.0 11.0 0.00 0.00 0.00 68 1012.1
20260904143740 74 350 8.0 11.0 0.00 0.00 0.00 67 1012.1
20260904143612 74 333 6.0 11.0 0.00 0.00 0.00 69 1011.9
20260904143526 74 347 5.0 11.0 0.00 0.00 0.00 69 1011.9
20260904143355 74 298 7.0 11.0 0.00 0.00 0.00 71 1012.0
20260904143317 74 36 6.0 11.0 0.00 0.00 0.00 71 1012.0
20260904143141 73 32 4.0 6.0 0.00 0.00 0.00 71 1011.9
20260904143042 73 34 3.0 5.0 0.00 0.00 0.00 72 1011.9
20260904142931 73 13 2.0 5.0 0.00 0.00 0.00 74 1011.9
20260904142854 73 332 2.0 4.0 0.00 0.00 0.00 73 1011.8
20260904142759 73 332 2.0 5.0 0.00 0.00 0.00 75 1011.8
20260904142719 73 333 2.0 5.0 0.00 0.00 0.00 75 1011.8
20260904142525 73 46 2.0 6.0 0.00 0.00 0.00 72 1011.8
20260904142426 73 334 2.0 6.0 0.00 0.00 0.00 73 1011.8
20260904142331 73 13 2.0 6.0 0.00 0.00 0.00 73 1011.8
20260904142233 73 46 2.0 6.0 0.00 0.00 0.00 72 1011.8
20260904142156 73 61 3.0 6.0 0.00 0.00 0.00 71 1011.8
20260904142025 73 5 4.0 6.0 0.00 0.00 0.00 72 1011.9
20260904141940 73 360 3.0 6.0 0.00 0.00 0.00 74 1011.9
20260904141810 73 347 3.0 6.0 0.00 0.00 0.00 72 1011.9
20260904141730 73 319 4.0 6.0 0.00 0.00 0.00 72 1011.9
20260904141533 73 329 4.0 6.0 0.00 0.00 0.00 73 1011.9
20260904141456 73 27 4.0 6.0 0.00 0.00 0.00 73 1011.9
20260904141322 73 355 3.0 6.0 0.00 0.00 0.00 73 1011.9
20260904141236 73 35 2.0 6.0 0.00 0.00 0.00 74 1011.9
20260904141141 73 44 1.0 6.0 0.00 0.00 0.00 75 1011.9
20260904141038 73 360 1.0 6.0 0.00 0.00 0.00 73 1011.8
20260904140940 73 360 4.0 6.0 0.00 0.00 0.00 75 1011.9
20260904140824 73 360 3.0 6.0 0.00 0.00 0.00 76 1011.9
20260904140747 73 360 2.0 6.0 0.00 0.00 0.00 77 1011.9
20260904140709 73 348 0.0 4.0 0.00 0.00 0.00 77 1012.0
20260904140613 73 340 1.0 4.0 0.00 0.00 0.00 75 1011.9
20260904140514 72 340 1.0 4.0 0.00 0.00 0.00 76 1011.9
20260904140346 72 348 2.0 4.0 0.00 0.00 0.00 78 1011.9
20260904140224 72 340 2.0 4.0 0.00 0.00 0.00 77 1012.0
20260904140129 72 355 2.0 3.0 0.00 0.00 0.00 77 1012.0
20260904140051 72 337 1.0 3.0 0.00 0.00 0.00 78 1012.0
20260904135900 72 355 0.0 3.0 0.00 0.00 0.00 74 1011.9
20260904135813 72 355 0.0 3.0 0.00 0.00 0.00 75 1011.9
20260904135656 72 355 1.0 3.0 0.00 0.00 0.00 77 1012.0
20260904135617 72 355 1.0 3.0 0.00 0.00 0.00 78 1012.0
20260904135449 72 355 0.0 2.0 0.00 0.00 0.00 78 1012.0
20260904135325 72 355 0.0 2.0 0.00 0.00 0.00 77 1012.0
20260904135228 71 355 0.0 2.0 0.00 0.00 0.00 78 1012.0
20260904135154 71 355 0.0 2.0 0.00 0.00 0.00 78 1012.0
20260904135115 71 355 0.0 4.0 0.00 0.00 0.00 77 1012.0
20260904135022 71 355 0.0 4.0 0.00 0.00 0.00 77 1012.0
20260904134942 71 355 0.0 4.0 0.00 0.00 0.00 77 1012.0
20260904134813 71 355 0.0 4.0 0.00 0.00 0.00 77 1012.0
20260904134728 71 355 0.0 4.0 0.00 0.00 0.00 80 1012.0
20260904134557 71 355 1.0 4.0 0.00 0.00 0.00 80 1012.0
20260904134518 71 355 1.0 4.0 0.00 0.00 0.00 79 1012.0
20260904134340 71 355 2.0 4.0 0.00 0.00 0.00 80 1012.0
20260904134240 71 355 2.0 3.0 0.00 0.00 0.00 80 1012.0
20260904134125 71 355 1.0 3.0 0.00 0.00 0.00 82 1012.0
20260904134051 71 355 1.0 3.0 0.00 0.00 0.00 81 1011.9
20260904133953 71 355 1.0 3.0 0.00 0.00 0.00 81 1011.9
20260904133858 71 345 0.0 3.0 0.00 0.00 0.00 82 1011.9
20260904133738 71 43 0.0 2.0 0.00 0.00 0.00 82 1011.9
20260904133642 70 47 0.0 2.0 0.00 0.00 0.00 81 1012.0
20260904133545 70 47 0.0 2.0 0.00 0.00 0.00 81 1011.9
20260904133429 70 47 0.0 2.0 0.00 0.00 0.00 81 1011.9
20260904133350 70 47 1.0 2.0 0.00 0.00 0.00 81 1011.9
20260904133311 70 47 1.0 2.0 0.00 0.00 0.00 82 1011.9
20260904133215 70 46 0.0 1.0 0.00 0.00 0.00 83 1011.9
20260904133137 70 44 0.0 0.0 0.00 0.00 0.00 81 1011.9
20260904133011 70 44 0.0 0.0 0.00 0.00 0.00 81 1011.9
20260904132933 70 44 0.0 0.0 0.00 0.00 0.00 81 1011.9
20260904132736 70 44 0.0 0.0 0.00 0.00 0.00 83 1011.9
20260904132659 70 44 0.0 0.0 0.00 0.00 0.00 83 1011.9
20260904132604 70 44 0.0 0.0 0.00 0.00 0.00 82 1011.9
20260904132502 70 44 0.0 0.0 0.00 0.00 0.00 83 1011.9
20260904132313 69 44 0.0 0.0 0.00 0.00 0.00 85 1011.9
20260904132227 69 47 0.0 0.0 0.00 0.00 0.00 85 1011.9
20260904132058 69 48 0.0 0.0 0.00 0.00 0.00 85 1011.9
20260904132020 69 90 0.0 0.0 0.00 0.00 0.00 84 1011.9
20260904131901 69 90 0.0 0.0 0.00 0.00 0.00 85 1011.9
20260904131711 69 90 0.0 0.0 0.00 0.00 0.00 84 1011.9
20260904131636 69 90 0.0 0.0 0.00 0.00 0.00 85 1011.9
20260904131505 69 90 0.0 0.0 0.00 0.00 0.00 85 1012.0
20260904131420 69 90 0.0 0.0 0.00 0.00 0.00 85 1012.0
20260904131230 69 90 0.0 0.0 0.00 0.00 0.00 85 1012.0
20260904131125 68 90 0.0 0.0 0.00 0.00 0.00 86 1012.0
20260904131048 68 90 0.0 0.0 0.00 0.00 0.00 86 1012.0
20260904130924 68 90 0.0 0.0 0.00 0.00 0.00 86 1012.0
20260904130840 68 90 0.0 0.0 0.00 0.00 0.00 87 1012.0
20260904130711 68 90 0.0 0.0 0.00 0.00 0.00 87 1012.0
20260904130614 68 90 0.0 0.0 0.00 0.00 0.00 88 1012.0
20260904130446 68 90 0.0 0.0 0.00 0.00 0.00 88 1012.0
20260904130339 68 90 0.0 0.0 0.00 0.00 0.00 88 1012.0
20260904130301 68 90 0.0 0.0 0.00 0.00 0.00 87 1011.9
20260904130206 68 90 0.0 0.0 0.00 0.00 0.00 87 1012.0
20260904130107 68 90 0.0 0.0 0.00 0.00 0.00 87 1012.0
20260904125917 68 90 0.0 0.0 0.00 0.00 0.00 88 1011.9
20260904125831 68 90 0.0 0.0 0.00 0.00 0.00 88 1011.9
20260904125702 67 90 0.0 0.0 0.00 0.00 0.00 88 1012.0
20260904125541 67 90 0.0 0.0 0.00 0.00 0.00 89 1011.9
20260904125426 67 90 0.0 0.0 0.00 0.00 0.00 88 1011.9
20260904125352 67 90 0.0 0.0 0.00 0.00 0.00 88 1011.9
20260904125315 67 90 0.0 0.0 0.00 0.00 0.00 89 1012.0
20260904125217 67 90 0.0 0.0 0.00 0.00 0.00 88 1012.0
20260904125136 67 90 0.0 0.0 0.00 0.00 0.00 88 1012.0
20260904124947 67 90 0.0 0.0 0.00 0.00 0.00 89 1012.0
20260904124822 67 90 0.0 0.0 0.00 0.00 0.00 89 1012.0
20260904124726 67 90 0.0 0.0 0.00 0.00 0.00 90 1012.0
20260904124647 67 90 0.0 0.0 0.00 0.00 0.00 91 1012.0
20260904124508 67 90 0.0 0.0 0.00 0.00 0.00 90 1012.0
20260904124341 67 90 0.0 0.0 0.00 0.00 0.00 90 1012.0
20260904124306 67 90 0.0 0.0 0.00 0.00 0.00 90 1012.0
20260904124222 67 90 0.0 0.0 0.00 0.00 0.00 91 1012.0
20260904124144 67 90 0.0 0.0 0.00 0.00 0.00 91 1012.0
20260904124014 66 90 0.0 0.0 0.00 0.00 0.00 90 1012.0
20260904123929 66 90 0.0 0.0 0.00 0.00 0.00 91 1012.0
20260904123759 66 90 0.0 0.0 0.00 0.00 0.00 90 1012.0
20260904123719 66 90 0.0 0.0 0.00 0.00 0.00 90 1012.0
20260904123550 66 90 0.0 0.0 0.00 0.00 0.00 91 1012.0
20260904123504 66 90 0.0 0.0 0.00 0.00 0.00 91 1012.0
20260904123344 66 90 0.0 0.0 0.00 0.00 0.00 90 1011.9
20260904123154 66 90 0.0 0.0 0.00 0.00 0.00 89 1011.9
20260904123110 66 90 0.0 0.0 0.00 0.00 0.00 90 1011.9
20260904122951 66 90 0.0 0.0 0.00 0.00 0.00 90 1012.0
20260904122917 66 90 0.0 0.0 0.00 0.00 0.00 90 1011.9
20260904122720 66 90 0.0 0.0 0.00 0.00 0.00 89 1011.9
20260904122649 66 90 0.0 0.0 0.00 0.00 0.00 90 1012.0
20260904122535 66 90 0.0 0.0 0.00 0.00 0.00 90 1012.0
20260904122436 66 90 0.0 0.0 0.00 0.00 0.00 89 1012.0
20260904122359 66 90 0.0 0.0 0.00 0.00 0.00 89 1012.0
20260904122224 66 90 0.0 0.0 0.00 0.00 0.00 89 1012.0
20260904122139 66 90 0.0 0.0 0.00 0.00 0.00 89 1012.1
20260904122045 66 90 0.0 0.0 0.00 0.00 0.00 89 1012.0
20260904121948 66 90 0.0 0.0 0.00 0.00 0.00 90 1012.1
20260904121907 66 90 0.0 0.0 0.00 0.00 0.00 90 1012.1
20260904121737 66 90 0.0 0.0 0.00 0.00 0.00 89 1012.1
20260904121630 66 90 0.0 0.0 0.00 0.00 0.00 89 1012.1
20260904121501 66 90 0.0 0.0 0.00 0.00 0.00 90 1012.0
20260904121335 65 90 0.0 0.0 0.00 0.00 0.00 90 1012.0
20260904121258 66 90 0.0 0.0 0.00 0.00 0.00 90 1012.0
20260904121218 65 90 0.0 0.0 0.00 0.00 0.00 91 1012.1
20260904121051 65 90 0.0 0.0 0.00 0.00 0.00 91 1012.1
20260904121004 65 90 0.0 0.0 0.00 0.00 0.00 91 1012.1
20260904120830 65 90 0.0 0.0 0.00 0.00 0.00 92 1012.1
20260904120724 65 90 0.0 0.0 0.00 0.00 0.00 92 1012.1
20260904120647 65 90 0.0 0.0 0.00 0.00 0.00 92 1012.1
20260904120602 65 90 0.0 0.0 0.00 0.00 0.00 93 1012.1
20260904120443 65 90 0.0 0.0 0.00 0.00 0.00 93 1012.1
20260904120358 64 90 0.0 0.0 0.00 0.00 0.00 94 1012.1
20260904120320 64 90 0.0 0.0 0.00 0.00 0.00 94 1012.1
20260904120125 64 90 0.0 0.0 0.00 0.00 0.00 95 1012.1
20260904120047 64 90 0.0 0.0 0.00 0.00 0.00 95 1012.1
20260904115934 64 90 0.0 0.0 0.00 0.00 0.00 95 1012.0
20260904115829 63 90 0.0 0.0 0.00 0.00 0.00 95 1012.1
20260904115750 63 90 0.0 0.0 0.00 0.00 0.00 96 1012.1
20260904115656 63 90 0.0 0.0 0.00 0.00 0.00 96 1012.1
20260904115557 63 90 0.0 0.0 0.00 0.00 0.00 96 1012.0
20260904115520 63 90 0.0 0.0 0.00 0.00 0.00 96 1012.1
20260904115404 63 90 0.0 0.0 0.00 0.00 0.00 96 1012.1
20260904115326 63 90 0.0 0.0 0.00 0.00 0.00 96 1012.1
20260904115130 63 355 0.0 0.0 0.00 0.00 0.00 96 1012.1
20260904115033 63 347 0.0 0.0 0.00 0.00 0.00 96 1012.0
20260904114923 63 333 0.0 0.0 0.00 0.00 0.00 96 1012.1
20260904114845 63 333 0.0 0.0 0.00 0.00 0.00 96 1012.0
20260904114808 62 333 0.0 0.0 0.00 0.00 0.00 96 1012.0
20260904114713 62 333 0.0 0.0 0.00 0.00 0.00 96 1012.0
20260904114635 62 333 0.0 0.0 0.00 0.00 0.00 96 1012.0
20260904114504 62 333 0.0 0.0 0.00 0.00 0.00 96 1012.0
20260904114419 62 333 0.0 0.0 0.00 0.00 0.00 96 1012.0
20260904114230 61 333 0.0 0.0 0.00 0.00 0.00 96 1012.1
20260904114145 61 333 0.0 0.0 0.00 0.00 0.00 96 1012.0
20260904114016 61 333 0.0 0.0 0.00 0.00 0.00 96 1012.0
20260904113936 61 333 0.0 0.0 0.00 0.00 0.00 96 1012.0
20260904113813 61 333 0.0 0.0 0.00 0.00 0.00 96 1012.0
20260904113726 61 333 0.0 0.0 0.00 0.00 0.00 96 1012.0
20260904113538 60 333 0.0 0.0 0.00 0.00 0.00 96 1011.9
20260904113432 60 333 0.0 0.0 0.00 0.00 0.00 96 1011.9
20260904113355 60 331 0.0 0.0 0.00 0.00 0.00 96 1011.9
20260904113249 60 331 0.0 0.0 0.00 0.00 0.00 96 1011.9
20260904113150 60 331 0.0 0.0 0.00 0.00 0.00 96 1011.9
20260904112958 59 331 0.0 0.0 0.00 0.00 0.00 96 1011.8
20260904112833 59 331 0.0 0.0 0.00 0.00 0.00 96 1011.8
20260904112722 59 331 0.0 0.0 0.00 0.00 0.00 95 1011.8
20260904112644 59 331 0.0 0.0 0.00 0.00 0.00 95 1011.7
20260904112516 59 331 0.0 0.0 0.00 0.00 0.00 95 1011.8
20260904112430 59 331 0.0 0.0 0.00 0.00 0.00 95 1011.8
20260904112306 58 331 0.0 0.0 0.00 0.00 0.00 95 1011.7
20260904112227 58 331 0.0 0.0 0.00 0.00 0.00 95 1011.7
20260904112031 58 331 0.0 0.0 0.00 0.00 0.00 95 1011.7
20260904111934 58 331 0.0 0.0 0.00 0.00 0.00 95 1011.8
20260904111839 58 331 0.0 0.0 0.00 0.00 0.00 95 1011.7
20260904111800 58 331 0.0 0.0 0.00 0.00 0.00 95 1011.7
20260904111722 58 331 0.0 0.0 0.00 0.00 0.00 95 1011.7
20260904111609 58 331 0.0 0.0 0.00 0.00 0.00 95 1011.7
20260904111532 58 331 0.0 0.0 0.00 0.00 0.00 95 1011.7
20260904111336 58 331 0.0 0.0 0.00 0.00 0.00 95 1011.6
20260904111238 58 331 0.0 0.0 0.00 0.00 0.00 95 1011.6
20260904111124 58 331 0.0 0.0 0.00 0.00 0.00 95 1011.7
20260904111046 58 331 0.0 0.0 0.00 0.00 0.00 95 1011.6
20260904111010 58 331 0.0 0.0 0.00 0.00 0.00 95 1011.6
20260904110914 58 331 0.0 0.0 0.00 0.00 0.00 95 1011.6
20260904110836 58 331 0.0 0.0 0.00 0.00 0.00 95 1011.6
20260904110707 58 331 0.0 0.0 0.00 0.00 0.00 95 1011.6
20260904110636 58 331 0.0 0.0 0.00 0.00 0.00 95 1011.6
20260904110506 58 331 0.0 0.0 0.00 0.00 0.00 95 1011.6
20260904110428 58 331 0.0 0.0 0.00 0.00 0.00 95 1011.6
20260904110232 58 331 0.0 0.0 0.00 0.00 0.00 95 1011.6
20260904110155 58 331 0.0 0.0 0.00 0.00 0.00 95 1011.6
20260904110039 58 331 0.0 0.0 0.00 0.00 0.00 95 1011.6
20260904110002 58 331 0.0 0.0 0.00 0.00 0.00 95 1011.6
20260904105904 58 331 0.0 0.0 0.00 0.00 0.00 95 1011.6
20260904105757 58 331 0.0 0.0 0.00 0.00 0.00 95 1011.6
20260904105658 58 331 0.0 0.0 0.00 0.00 0.00 95 1011.6
20260904105600 58 331 0.0 0.0 0.00 0.00 0.00 95 1011.6
20260904105508 58 331 0.0 0.0 0.00 0.00 0.00 95 1011.5
20260904105430 58 331 0.0 0.0 0.00 0.00 0.00 95 1011.5
20260904105301 58 331 0.0 0.0 0.00 0.00 0.00 95 1011.5
20260904105154 58 331 0.0 0.0 0.00 0.00 0.00 95 1011.5
20260904104944 58 331 0.0 0.0 0.00 0.00 0.00 95 1011.5
20260904104839 58 331 0.0 0.0 0.00 0.00 0.00 95 1011.5
20260904104723 58 331 0.0 0.0 0.00 0.00 0.00 95 1011.4
20260904104626 58 331 0.0 0.0 0.00 0.00 0.00 95 1011.4
20260904104549 58 331 0.0 0.0 0.00 0.00 0.00 95 1011.4
20260904104457 58 331 0.0 0.0 0.00 0.00 0.00 95 1011.4
20260904104418 58 331 0.0 0.0 0.00 0.00 0.00 95 1011.4
20260904104249 58 331 0.0 0.0 0.00 0.00 0.00 95 1011.4
20260904104124 58 331 0.0 0.0 0.00 0.00 0.00 95 1011.4
20260904104029 58 331 0.0 0.0 0.00 0.00 0.00 95 1011.4
20260904103952 58 331 0.0 0.0 0.00 0.00 0.00 95 1011.4
20260904103913 58 331 0.0 0.0 0.00 0.00 0.00 95 1011.3
20260904103818 58 331 0.0 0.0 0.00 0.00 0.00 95 1011.4
20260904103740 58 331 0.0 0.0 0.00 0.00 0.00 94 1011.4
20260904103609 58 331 0.0 0.0 0.00 0.00 0.00 94 1011.4
20260904103525 58 331 0.0 0.0 0.00 0.00 0.00 95 1011.4
20260904103359 58 331 0.0 0.0 0.00 0.00 0.00 95 1011.4
20260904103320 58 331 0.0 0.0 0.00 0.00 0.00 94 1011.4
20260904103152 58 331 0.0 0.0 0.00 0.00 0.00 94 1011.3
20260904103107 58 331 0.0 0.0 0.00 0.00 0.00 94 1011.4
20260904102938 58 331 0.0 0.0 0.00 0.00 0.00 94 1011.2
20260904102840 58 331 0.0 0.0 0.00 0.00 0.00 94 1011.2
20260904102643 58 331 0.0 0.0 0.00 0.00 0.00 95 1011.3
20260904102605 58 331 0.0 0.0 0.00 0.00 0.00 95 1011.2
20260904102509 58 331 0.0 0.0 0.00 0.00 0.00 95 1011.2
20260904102431 58 331 0.0 0.0 0.00 0.00 0.00 95 1011.2
20260904102251 58 331 0.0 0.0 0.00 0.00 0.00 95 1011.3
20260904102122 58 331 0.0 0.0 0.00 0.00 0.00 95 1011.2
20260904101938 58 331 0.0 0.0 0.00 0.00 0.00 95 1011.2
20260904101859 58 331 0.0 0.0 0.00 0.00 0.00 95 1011.2
20260904101724 58 331 0.0 0.0 0.00 0.00 0.00 95 1011.2
20260904101638 58 331 0.0 0.0 0.00 0.00 0.00 94 1011.2
20260904101427 59 331 0.0 0.0 0.00 0.00 0.00 95 1011.2
20260904101323 59 331 0.0 0.0 0.00 0.00 0.00 95 1011.2
20260904101246 59 331 0.0 0.0 0.00 0.00 0.00 95 1011.1
20260904101201 59 331 0.0 0.0 0.00 0.00 0.00 94 1011.1
20260904101035 59 331 0.0 0.0 0.00 0.00 0.00 94 1011.1
20260904100936 59 331 0.0 0.0 0.00 0.00 0.00 94 1011.1
20260904100738 59 331 0.0 0.0 0.00 0.00 0.00 94 1011.1
20260904100641 59 331 0.0 0.0 0.00 0.00 0.00 94 1011.1
20260904100526 59 331 0.0 0.0 0.00 0.00 0.00 94 1011.1
20260904100447 59 331 0.0 0.0 0.00 0.00 0.00 94 1011.0
20260904100311 59 331 0.0 0.0 0.00 0.00 0.00 95 1011.0
20260904100233 59 331 0.0 0.0 0.00 0.00 0.00 95 1011.0
20260904100044 59 331 0.0 0.0 0.00 0.00 0.00 95 1011.0
20260904095940 59 331 0.0 0.0 0.00 0.00 0.00 95 1011.1
20260904095903 59 331 0.0 0.0 0.00 0.00 0.00 95 1011.1
20260904095809 59 331 0.0 0.0 0.00 0.00 0.00 95 1011.1
20260904095729 59 331 0.0 0.0 0.00 0.00 0.00 95 1011.1
20260904095601 59 331 0.0 0.0 0.00 0.00 0.00 95 1011.1
20260904095515 59 331 0.0 0.0 0.00 0.00 0.00 95 1011.1
20260904095327 59 331 0.0 0.0 0.00 0.00 0.00 95 1011.1
20260904095240 59 331 0.0 0.0 0.00 0.00 0.00 95 1011.1
20260904095143 59 331 0.0 0.0 0.00 0.00 0.00 95 1011.1
20260904095022 59 331 0.0 0.0 0.00 0.00 0.00 95 1011.1
20260904094936 59 331 0.0 0.0 0.00 0.00 0.00 95 1011.1
20260904094808 59 331 0.0 0.0 0.00 0.00 0.00 95 1011.1
20260904094730 59 331 0.0 0.0 0.00 0.00 0.00 95 1011.1
20260904094535 59 331 0.0 0.0 0.00 0.00 0.00 95 1011.0
20260904094438 59 331 0.0 0.0 0.00 0.00 0.00 95 1011.0
20260904094344 60 331 0.0 0.0 0.00 0.00 0.00 95 1011.0
20260904094225 60 331 0.0 0.0 0.00 0.00 0.00 95 1011.0
20260904094130 60 331 0.0 0.0 0.00 0.00 0.00 95 1011.0
20260904094030 60 331 0.0 0.0 0.00 0.00 0.00 95 1011.0
20260904093904 60 331 0.0 0.0 0.00 0.00 0.00 95 1011.0
20260904093818 60 331 0.0 0.0 0.00 0.00 0.00 95 1011.0
20260904093629 60 331 0.0 0.0 0.00 0.00 0.00 95 1010.9
20260904093546 60 331 0.0 0.0 0.00 0.00 0.00 95 1011.0
20260904093416 60 331 0.0 0.0 0.00 0.00 0.00 95 1010.9
20260904093339 60 331 0.0 0.0 0.00 0.00 0.00 95 1010.9
20260904093142 60 331 0.0 0.0 0.00 0.00 0.00 95 1010.9
20260904093046 60 331 0.0 0.0 0.00 0.00 0.00 95 1010.9
20260904092949 60 331 0.0 0.0 0.00 0.00 0.00 95 1010.9
20260904092912 60 331 0.0 0.0 0.00 0.00 0.00 95 1010.9
20260904092816 60 331 0.0 0.0 0.00 0.00 0.00 95 1010.9
20260904092721 60 331 0.0 0.0 0.00 0.00 0.00 95 1010.9
20260904092643 60 331 0.0 0.0 0.00 0.00 0.00 95 1010.9
20260904092515 60 331 0.0 0.0 0.00 0.00 0.00 95 1010.9
20260904092429 60 331 0.0 0.0 0.00 0.00 0.00 95 1010.9
20260904092300 60 331 0.0 0.0 0.00 0.00 0.00 95 1010.9
20260904092220 60 331 0.0 0.0 0.00 0.00 0.00 95 1010.9
20260904092052 60 331 0.0 0.0 0.00 0.00 0.00 95 1010.8
20260904091925 60 331 0.0 0.0 0.00 0.00 0.00 95 1010.8
20260904091848 60 331 0.0 0.0 0.00 0.00 0.00 95 1010.8
20260904091732 60 331 0.0 0.0 0.00 0.00 0.00 95 1010.8
20260904091658 60 331 0.0 0.0 0.00 0.00 0.00 95 1010.8
20260904091540 60 331 0.0 0.0 0.00 0.00 0.00 95 1010.8
20260904091503 60 331 0.0 0.0 0.00 0.00 0.00 95 1010.7
20260904091424 60 331 0.0 0.0 0.00 0.00 0.00 95 1010.7
20260904091320 60 331 0.0 0.0 0.00 0.00 0.00 95 1010.7
20260904091241 60 331 0.0 0.0 0.00 0.00 0.00 95 1010.7
20260904091113 60 331 0.0 0.0 0.00 0.00 0.00 95 1010.7
20260904091028 60 331 0.0 0.0 0.00 0.00 0.00 95 1010.7
20260904090859 60 331 0.0 0.0 0.00 0.00 0.00 95 1010.7
20260904090820 60 331 0.0 0.0 0.00 0.00 0.00 95 1010.7
20260904090625 60 331 0.0 0.0 0.00 0.00 0.00 95 1010.7
20260904090532 60 331 0.0 0.0 0.00 0.00 0.00 95 1010.7
20260904090436 60 331 0.0 0.0 0.00 0.00 0.00 95 1010.7
20260904090338 60 331 0.0 0.0 0.00 0.00 0.00 95 1010.7
20260904090208 60 331 0.0 0.0 0.00 0.00 0.00 94 1010.7
20260904090124 60 331 0.0 0.0 0.00 0.00 0.00 94 1010.7
20260904085953 60 331 0.0 0.0 0.00 0.00 0.00 94 1010.7
20260904085914 60 331 0.0 0.0 0.00 0.00 0.00 94 1010.6
20260904085758 60 331 0.0 0.0 0.00 0.00 0.00 94 1010.6
20260904085638 60 331 0.0 0.0 0.00 0.00 0.00 94 1010.6
20260904085523 60 331 0.0 0.0 0.00 0.00 0.00 94 1010.5
20260904085445 60 331 0.0 0.0 0.00 0.00 0.00 94 1010.5
20260904085350 60 331 0.0 0.0 0.00 0.00 0.00 94 1010.5
20260904085256 60 331 0.0 0.0 0.00 0.00 0.00 94 1010.5
20260904085137 60 331 0.0 0.0 0.00 0.00 0.00 94 1010.6
20260904085043 60 331 0.0 0.0 0.00 0.00 0.00 94 1010.5
20260904084943 60 331 0.0 0.0 0.00 0.00 0.00 94 1010.6
20260904084814 60 331 0.0 0.0 0.00 0.00 0.00 94 1010.6
20260904084729 60 331 0.0 0.0 0.00 0.00 0.00 94 1010.6
20260904084540 60 331 0.0 0.0 0.00 0.00 0.00 94 1010.6
20260904084454 60 331 0.0 0.0 0.00 0.00 0.00 94 1010.6
20260904084245 60 331 0.0 0.0 0.00 0.00 0.00 94 1010.6
20260904084211 60 331 0.0 0.0 0.00 0.00 0.00 95 1010.6
20260904084035 60 331 0.0 0.0 0.00 0.00 0.00 95 1010.6
20260904083958 60 331 0.0 0.0 0.00 0.00 0.00 94 1010.6
20260904083840 60 331 0.0 0.0 0.00 0.00 0.00 94 1010.6
20260904083803 61 331 0.0 0.0 0.00 0.00 0.00 94 1010.6
20260904083725 61 331 0.0 0.0 0.00 0.00 0.00 95 1010.5
20260904083607 61 331 0.0 0.0 0.00 0.00 0.00 95 1010.5
20260904083530 61 331 0.0 0.0 0.00 0.00 0.00 95 1010.5
20260904083334 61 331 0.0 0.0 0.00 0.00 0.00 95 1010.6
20260904083236 61 331 0.0 0.0 0.00 0.00 0.00 95 1010.6
20260904083124 61 331 0.0 0.0 0.00 0.00 0.00 95 1010.6
20260904083047 61 331 0.0 0.0 0.00 0.00 0.00 95 1010.6
20260904082919 61 331 0.0 0.0 0.00 0.00 0.00 94 1010.7
20260904082833 61 331 0.0 0.0 0.00 0.00 0.00 94 1010.7
20260904082644 61 331 0.0 0.0 0.00 0.00 0.00 94 1010.7
20260904082539 61 331 0.0 0.0 0.00 0.00 0.00 95 1010.7
20260904082427 61 331 0.0 0.0 0.00 0.00 0.00 95 1010.7
20260904082350 61 331 0.0 0.0 0.00 0.00 0.00 95 1010.7
20260904082137 61 331 0.0 0.0 0.00 0.00 0.00 94 1010.7
20260904082040 61 331 0.0 0.0 0.00 0.00 0.00 95 1010.7
20260904081945 61 115 0.0 0.0 0.00 0.00 0.00 95 1010.6
20260904081907 61 115 0.0 0.0 0.00 0.00 0.00 95 1010.6
20260904081647 61 115 0.0 0.0 0.00 0.00 0.00 95 1010.7
20260904081541 61 115 0.0 0.0 0.00 0.00 0.00 95 1010.6
20260904081412 61 115 0.0 0.0 0.00 0.00 0.00 95 1010.6
20260904081314 61 115 0.0 0.0 0.00 0.00 0.00 95 1010.6
20260904081210 61 115 0.0 0.0 0.00 0.00 0.00 95 1010.6
20260904081114 61 115 0.0 0.0 0.00 0.00 0.00 95 1010.6
20260904081035 61 115 0.0 0.0 0.00 0.00 0.00 95 1010.6
20260904080907 61 5 0.0 0.0 0.00 0.00 0.00 95 1010.7
20260904080827 61 5 0.0 0.0 0.00 0.00 0.00 95 1010.7
20260904080656 61 5 0.0 0.0 0.00 0.00 0.00 95 1010.7
20260904080621 61 5 0.0 0.0 0.00 0.00 0.00 95 1010.7
20260904080535 61 5 0.0 0.0 0.00 0.00 0.00 95 1010.7
20260904080405 61 5 0.0 0.0 0.00 0.00 0.00 95 1010.7
20260904080328 61 5 0.0 0.0 0.00 0.00 0.00 95 1010.7
20260904080132 61 5 0.0 0.0 0.00 0.00 0.00 95 1010.7
20260904080055 61 5 0.0 0.0 0.00 0.00 0.00 95 1010.7
20260904075939 61 5 0.0 0.0 0.00 0.00 0.00 95 1010.6
20260904075902 61 5 0.0 0.0 0.00 0.02 0.00 95 1010.6
20260904075729 61 5 0.0 0.0 0.00 0.02 0.00 95 1010.7
20260904075650 61 5 0.0 0.0 0.00 0.02 0.00 95 1010.7
20260904075613 61 5 0.0 0.0 0.00 0.02 0.00 95 1010.7
20260904075518 61 5 0.0 0.0 0.00 0.02 0.00 95 1010.7
20260904075439 61 5 0.0 0.0 0.00 0.02 0.00 95 1010.7
20260904075308 61 5 0.0 0.0 0.00 0.02 0.00 95 1010.7
20260904075200 61 5 0.0 0.0 0.00 0.02 0.00 95 1010.7
20260904075030 61 5 0.0 0.0 0.00 0.02 0.00 95 1010.6
20260904074930 61 5 0.0 0.0 0.00 0.02 0.00 95 1010.6
20260904074732 61 5 0.0 0.0 0.00 0.02 0.00 95 1010.6
20260904074653 62 5 0.0 0.0 0.00 0.02 0.00 95 1010.6
20260904074542 62 5 0.0 0.0 0.00 0.02 0.00 95 1010.6
20260904074503 62 5 0.0 0.0 0.00 0.02 0.00 95 1010.6
20260904074332 62 5 0.0 0.0 0.00 0.02 0.00 95 1010.6
20260904074223 62 5 0.0 0.0 0.00 0.02 0.00 95 1010.6
20260904074034 62 5 0.0 0.0 0.00 0.02 0.00 95 1010.6
20260904073929 62 5 0.0 0.0 0.00 0.02 0.00 95 1010.6
20260904073824 62 5 0.0 0.0 0.00 0.02 0.00 95 1010.6
20260904073744 62 5 0.0 0.0 0.00 0.02 0.00 95 1010.6
20260904073627 62 5 0.0 0.0 0.00 0.02 0.00 95 1010.6
20260904073553 62 5 0.0 0.0 0.00 0.02 0.00 95 1010.6
20260904073401 62 5 0.0 0.0 0.00 0.02 0.00 95 1010.7
20260904073318 62 5 0.0 0.0 0.00 0.02 0.00 95 1010.7
20260904073127 62 5 0.0 0.0 0.00 0.02 0.00 95 1010.6
20260904073043 62 5 0.0 0.0 0.00 0.02 0.00 95 1010.6
20260904072945 62 5 0.0 0.0 0.00 0.02 0.00 95 1010.6
20260904072906 62 5 0.0 0.0 0.00 0.02 0.00 95 1010.6
20260904072822 62 5 0.0 0.0 0.00 0.02 0.00 95 1010.6
20260904072631 62 5 0.0 0.0 0.00 0.02 0.00 95 1010.6
20260904072545 62 32 0.0 0.0 0.00 0.02 0.00 95 1010.5
20260904072418 62 65 0.0 0.0 0.00 0.02 0.00 95 1010.5
20260904072343 62 65 0.0 0.0 0.00 0.02 0.00 95 1010.5
20260904072213 62 65 0.0 0.0 0.00 0.02 0.00 95 1010.5
20260904072128 62 65 0.0 0.0 0.00 0.02 0.00 95 1010.5
20260904071957 62 65 0.0 0.0 0.00 0.02 0.00 95 1010.5
20260904071921 62 65 0.0 0.0 0.00 0.02 0.00 95 1010.5
20260904071835 62 65 0.0 0.0 0.00 0.02 0.00 95 1010.5
20260904071704 62 65 0.0 0.0 0.00 0.02 0.00 95 1010.5
20260904071626 62 65 0.0 0.0 0.00 0.02 0.00 95 1010.5
20260904071421 62 65 0.0 0.0 0.00 0.02 0.00 95 1010.6
20260904071200 62 65 0.0 0.0 0.00 0.02 0.00 95 1010.7
20260904071115 62 65 0.0 0.0 0.00 0.02 0.00 95 1010.7
20260904070945 62 44 0.0 0.0 0.00 0.02 0.00 95 1010.7
20260904070848 62 44 0.0 0.0 0.00 0.02 0.00 95 1010.8
20260904070718 62 336 0.0 0.0 0.00 0.02 0.00 95 1010.7
20260904070632 62 336 0.0 0.0 0.00 0.02 0.00 95 1010.7
20260904070443 62 336 0.0 0.0 0.00 0.02 0.00 95 1010.7
20260904070337 61 336 0.0 0.0 0.00 0.02 0.00 95 1010.7
20260904070258 61 336 0.0 0.0 0.00 0.02 0.00 95 1010.7
20260904070202 61 336 0.0 0.0 0.00 0.02 0.00 95 1010.6
20260904065911 61 336 0.0 0.0 0.00 0.18 0.00 95 1010.6
20260904065827 61 360 0.0 0.0 0.00 0.18 0.00 95 1010.6
20260904065640 61 59 0.0 0.0 0.00 0.18 0.00 95 1010.5
20260904065536 61 59 0.0 0.0 0.00 0.18 0.00 95 1010.6
20260904065431 61 59 0.0 0.0 0.00 0.18 0.00 95 1010.5
20260904065351 61 59 0.0 0.0 0.00 0.18 0.00 95 1010.5
20260904065211 61 59 0.0 0.0 0.00 0.18 0.00 95 1010.6
20260904065126 61 59 0.0 0.0 0.00 0.18 0.00 95 1010.6
20260904064935 61 59 0.0 0.0 0.00 0.18 0.00 95 1010.6
20260904064830 61 59 0.0 0.0 0.00 0.18 0.00 95 1010.6
20260904064726 61 59 0.0 0.0 0.00 0.18 0.00 95 1010.5
20260904064648 61 59 0.0 0.0 0.00 0.18 0.00 95 1010.5
20260904064518 61 59 0.0 0.0 0.00 0.18 0.00 95 1010.5
20260904064432 61 59 0.0 0.0 0.00 0.18 0.00 95 1010.5
20260904064242 61 59 0.0 0.0 0.00 0.18 0.00 95 1010.5
20260904064138 61 59 0.0 0.0 0.00 0.18 0.00 95 1010.5
20260904064023 61 59 0.0 0.0 0.00 0.18 0.00 95 1010.5
20260904063944 61 59 0.0 0.0 0.00 0.18 0.00 95 1010.5
20260904063813 61 59 0.0 0.0 0.00 0.18 0.00 95 1010.5
20260904063728 61 59 0.0 0.0 0.00 0.18 0.00 95 1010.5
20260904063601 61 59 0.0 0.0 0.00 0.18 0.00 95 1010.5
20260904063524 61 59 0.0 0.0 0.00 0.18 0.00 95 1010.5
20260904063353 61 59 0.0 0.0 0.00 0.18 0.00 95 1010.6
20260904063226 61 59 0.0 0.0 0.00 0.18 0.00 95 1010.6
20260904063147 61 59 0.0 0.0 0.00 0.18 0.00 95 1010.6
20260904063052 61 59 0.0 0.0 0.00 0.18 0.00 95 1010.6
20260904063014 61 59 0.0 0.0 0.00 0.18 0.00 95 1010.7
20260904062822 61 59 0.0 0.0 0.00 0.18 0.00 95 1010.8
20260904062716 61 59 0.0 0.0 0.00 0.18 0.00 95 1010.8
20260904062546 61 59 0.0 0.0 0.00 0.18 0.00 95 1010.8
20260904062447 61 59 0.0 0.0 0.00 0.18 0.00 95 1010.8
20260904062233 61 334 0.0 0.0 0.00 0.18 0.00 95 1010.8
20260904062155 61 334 0.0 0.0 0.00 0.18 0.00 95 1010.8
20260904062057 61 334 0.0 0.0 0.00 0.18 0.00 95 1010.8
20260904062019 61 334 0.0 0.0 0.00 0.18 0.00 95 1010.8
20260904061821 61 334 0.0 0.0 0.00 0.18 0.00 95 1010.8
20260904061733 61 334 0.0 0.0 0.00 0.18 0.00 95 1010.9
20260904061627 61 334 0.0 0.0 0.00 0.18 0.00 95 1010.9
20260904061548 61 334 0.0 0.0 0.00 0.18 0.00 95 1010.8
20260904061331 61 334 0.0 0.0 0.00 0.18 0.00 95 1010.9
20260904061255 61 334 0.0 0.0 0.00 0.18 0.00 95 1010.9
20260904061158 61 334 0.0 0.0 0.00 0.18 0.00 95 1010.9
20260904061037 61 334 0.0 0.0 0.00 0.18 0.00 95 1010.8
20260904060950 61 334 0.0 0.0 0.00 0.18 0.00 95 1010.9
20260904060830 61 334 0.0 0.0 0.00 0.18 0.00 95 1010.9
20260904060753 61 334 0.0 0.0 0.00 0.18 0.00 95 1010.9
20260904060635 61 334 0.0 0.0 0.00 0.18 0.00 95 1010.9
20260904060558 61 334 0.0 0.0 0.00 0.18 0.00 94 1010.9
20260904060441 61 334 0.0 0.0 0.00 0.18 0.00 94 1010.9
20260904060402 61 334 0.0 0.0 0.00 0.18 0.00 94 1010.9
20260904060327 61 334 0.0 0.0 0.00 0.18 0.00 94 1011.0
20260904060210 61 334 0.0 0.0 0.00 0.18 0.00 94 1010.9
20260904060132 61 334 0.0 0.0 0.00 0.18 0.00 94 1010.9
20260904060001 61 334 0.0 0.0 0.00 0.18 0.00 94 1010.9
20260904055915 61 334 0.0 0.0 0.00 0.20 0.00 94 1011.0
20260904055723 61 334 0.0 0.0 0.00 0.20 0.00 94 1011.0
20260904055639 61 334 0.0 0.0 0.00 0.20 0.00 94 1011.0
20260904055447 61 334 0.0 0.0 0.00 0.20 0.00 94 1011.0
20260904055347 61 334 0.0 0.0 0.00 0.20 0.00 94 1011.0
20260904055241 61 334 0.0 0.0 0.00 0.20 0.00 94 1010.9
20260904055202 61 334 0.0 0.0 0.00 0.20 0.00 94 1010.9
20260904055120 61 334 0.0 0.0 0.00 0.20 0.00 94 1010.9
20260904054930 61 334 0.0 0.0 0.00 0.20 0.00 94 1011.0
20260904054844 61 334 0.0 0.0 0.00 0.20 0.00 94 1011.0
20260904054714 61 334 0.0 0.0 0.00 0.20 0.00 94 1011.0
20260904054613 61 334 0.0 0.0 0.00 0.20 0.00 94 1011.0
20260904054436 61 334 0.0 0.0 0.00 0.20 0.00 94 1011.0
20260904054357 61 334 0.0 0.0 0.00 0.20 0.00 94 1011.0
20260904054321 61 334 0.0 0.0 0.00 0.20 0.00 94 1011.0
20260904054223 61 334 0.0 0.0 0.00 0.20 0.00 94 1011.0
20260904054123 61 334 0.0 0.0 0.00 0.20 0.00 94 1011.0
20260904053930 61 334 0.0 0.0 0.00 0.20 0.00 94 1011.0
20260904053830 61 334 0.0 0.0 0.00 0.20 0.00 94 1011.0
20260904053734 61 334 0.0 0.0 0.00 0.20 0.00 94 1011.0
20260904053655 61 334 0.0 0.0 0.00 0.20 0.00 94 1011.0
20260904053616 61 334 0.0 0.0 0.00 0.20 0.00 94 1011.0
20260904053521 61 334 0.0 0.0 0.00 0.20 0.00 94 1011.0
20260904053422 61 334 0.0 0.0 0.00 0.20 0.00 94 1011.0
20260904053226 61 334 0.0 0.0 0.00 0.20 0.00 94 1011.1
20260904053127 61 334 0.0 0.0 0.00 0.20 0.00 94 1011.1
20260904053031 61 334 0.0 0.0 0.00 0.20 0.00 94 1011.0
20260904052936 61 334 0.0 0.0 0.00 0.20 0.00 94 1011.0
20260904052806 61 334 0.0 0.0 0.00 0.20 0.00 94 1011.1
20260904052720 61 334 0.0 0.0 0.00 0.20 0.00 94 1011.1
20260904052532 61 334 0.0 0.0 0.00 0.20 0.00 94 1011.1
20260904052447 61 334 0.0 0.0 0.00 0.20 0.00 94 1011.1
20260904052316 61 334 0.0 0.0 0.00 0.20 0.00 94 1011.1
20260904052237 61 334 0.0 0.0 0.00 0.20 0.00 94 1011.1
20260904052040 61 334 0.0 0.0 0.00 0.20 0.00 94 1011.1
20260904051959 61 334 0.0 0.0 0.00 0.20 0.00 94 1011.0
20260904051843 61 334 0.0 0.0 0.00 0.20 0.00 94 1011.0
20260904051808 61 334 0.0 0.0 0.00 0.20 0.00 94 1011.0
20260904051617 62 334 0.0 0.0 0.00 0.20 0.00 94 1011.1
20260904051532 62 334 0.0 0.0 0.00 0.20 0.00 94 1011.1
20260904051342 62 334 0.0 0.0 0.00 0.20 0.00 93 1011.1
20260904051218 62 334 0.0 0.0 0.00 0.20 0.00 93 1011.1
20260904051142 62 334 0.0 0.0 0.00 0.20 0.00 93 1011.1
20260904051042 62 334 0.0 0.0 0.00 0.20 0.00 93 1011.1
20260904050911 62 334 0.0 0.0 0.00 0.20 0.00 93 1011.1
20260904050815 62 334 0.0 0.0 0.00 0.20 0.00 93 1011.1
20260904050736 62 334 0.0 0.0 0.00 0.20 0.00 93 1011.1
20260904050610 62 314 0.0 0.0 0.00 0.20 0.00 94 1011.1
20260904050423 62 314 0.0 0.0 0.00 0.20 0.00 94 1011.1
20260904050327 62 314 0.0 0.0 0.00 0.20 0.00 94 1011.1
20260904050248 62 314 0.0 0.0 0.00 0.20 0.00 94 1011.1
20260904050118 62 314 0.0 0.0 0.00 0.20 0.00 94 1011.1
20260904050032 62 314 0.0 0.0 0.00 0.20 0.00 94 1011.1
20260904045901 62 314 0.0 0.0 0.00 0.31 0.00 94 1011.1
20260904045824 62 314 0.0 0.0 0.00 0.31 0.00 93 1011.1
20260904045627 62 314 0.0 0.0 0.00 0.31 0.00 93 1011.2
20260904045547 62 314 0.0 0.0 0.00 0.31 0.00 93 1011.2
20260904045455 63 314 0.0 0.0 0.00 0.31 0.00 93 1011.1
20260904045416 63 314 0.0 0.0 0.00 0.31 0.00 93 1011.1
20260904045245 63 314 0.0 0.0 0.00 0.31 0.00 93 1011.2
20260904045140 63 314 0.0 0.0 0.00 0.31 0.00 94 1011.2
20260904045023 63 314 0.0 0.0 0.00 0.31 0.00 94 1011.2
20260904044944 63 314 0.0 0.0 0.00 0.31 0.00 94 1011.2
20260904044905 63 314 0.0 0.0 0.00 0.31 0.00 94 1011.1
20260904044759 63 314 0.0 0.0 0.00 0.31 0.00 94 1011.2
20260904044659 63 314 0.0 0.0 0.00 0.31 0.00 94 1011.2
20260904044528 63 314 0.0 0.0 0.00 0.31 0.00 93 1011.2
20260904044430 63 314 0.0 0.0 0.00 0.31 0.00 93 1011.2
20260904044317 63 314 0.0 0.0 0.00 0.31 0.00 93 1011.2
20260904044240 63 314 0.0 0.0 0.00 0.31 0.00 93 1011.2
20260904044109 63 314 0.0 0.0 0.00 0.31 0.00 93 1011.2
20260904044023 63 314 0.0 0.0 0.00 0.31 0.00 93 1011.2
20260904043834 63 314 0.0 0.0 0.00 0.31 0.00 93 1011.2
20260904043747 63 314 0.0 0.0 0.00 0.31 0.00 94 1011.2
20260904043617 63 314 0.0 0.0 0.00 0.31 0.00 94 1011.3
20260904043517 63 314 0.0 0.0 0.00 0.31 0.00 94 1011.3
20260904043340 63 314 0.0 0.0 0.00 0.31 0.00 94 1011.3
20260904043242 63 314 0.0 0.0 0.00 0.31 0.00 93 1011.3
20260904043129 63 314 0.0 0.0 0.00 0.31 0.00 93 1011.4
20260904043051 63 314 0.0 0.0 0.00 0.31 0.00 93 1011.4
20260904042832 64 314 0.0 0.0 0.00 0.31 0.00 94 1011.4
20260904042753 64 314 0.0 0.0 0.00 0.31 0.00 94 1011.4
20260904042657 64 314 0.0 0.0 0.00 0.31 0.00 94 1011.4
20260904042537 64 314 0.0 0.0 0.00 0.31 0.00 94 1011.4
20260904042502 64 314 0.0 0.0 0.00 0.31 0.00 94 1011.5
20260904042404 64 314 0.0 0.0 0.00 0.31 0.00 94 1011.5
20260904042325 64 314 0.0 0.0 0.00 0.31 0.00 94 1011.5
20260904042128 64 314 0.0 0.0 0.00 0.31 0.00 94 1011.5
20260904042032 64 314 0.0 0.0 0.00 0.31 0.00 94 1011.6
20260904041938 64 314 0.0 0.0 0.00 0.31 0.00 94 1011.5
20260904041859 64 314 0.0 0.0 0.00 0.31 0.00 94 1011.5
20260904041821 64 314 0.0 0.0 0.00 0.31 0.00 94 1011.5
20260904041713 64 314 0.0 0.0 0.00 0.31 0.00 94 1011.4
20260904041614 64 314 0.0 0.0 0.00 0.31 0.00 94 1011.5
20260904041444 64 314 0.0 0.0 0.00 0.31 0.00 94 1011.5
20260904041338 64 314 0.0 0.0 0.00 0.31 0.00 94 1011.5
20260904041309 64 314 0.0 0.0 0.00 0.31 0.00 94 1011.5
20260904041212 64 314 0.0 0.0 0.00 0.31 0.00 94 1011.6
20260904041133 64 314 0.0 0.0 0.00 0.31 0.00 94 1011.6
20260904041007 64 314 0.0 0.0 0.00 0.31 0.00 94 1011.5
20260904040921 64 314 0.0 0.0 0.00 0.31 0.00 94 1011.5
20260904040750 64 314 0.0 0.0 0.00 0.31 0.00 94 1011.6
20260904040710 64 314 0.0 0.0 0.00 0.31 0.00 94 1011.6
20260904040613 64 314 0.0 0.0 0.00 0.31 0.00 93 1011.6
20260904040515 64 314 0.0 0.0 0.00 0.31 0.00 93 1011.6
20260904040437 64 314 0.0 0.0 0.00 0.31 0.00 93 1011.6
20260904040215 64 314 0.0 0.0 0.00 0.31 0.00 94 1011.7
20260904040129 64 314 0.0 0.0 0.00 0.31 0.00 94 1011.7
20260904035942 64 314 0.0 0.0 0.00 0.31 0.00 93 1011.7
20260904035858 64 314 0.0 0.0 0.00 0.31 0.31 93 1011.6
20260904035707 64 314 0.0 0.0 0.00 0.31 0.31 94 1011.6
20260904035634 64 314 0.0 0.0 0.00 0.31 0.31 94 1011.6
20260904035457 64 314 0.0 0.0 0.00 0.31 0.31 93 1011.6
20260904035420 64 314 0.0 0.0 0.00 0.31 0.31 93 1011.6
20260904035229 64 314 0.0 0.0 0.00 0.31 0.31 93 1011.6
20260904035144 64 314 0.0 0.0 0.00 0.31 0.31 93 1011.6
20260904035015 64 314 0.0 0.0 0.00 0.31 0.31 93 1011.6
20260904034938 64 314 0.0 0.0 0.00 0.31 0.31 93 1011.6
20260904034740 64 314 0.0 0.0 0.00 0.31 0.31 93 1011.6
20260904034701 64 314 0.0 0.0 0.00 0.31 0.31 93 1011.6
20260904034605 64 314 0.0 0.0 0.00 0.31 0.31 93 1011.6
20260904034526 64 314 0.0 0.0 0.00 0.31 0.31 93 1011.6
20260904034335 64 314 0.0 0.0 0.00 0.31 0.31 93 1011.6
20260904034236 64 314 0.0 0.0 0.00 0.31 0.31 93 1011.6
20260904034140 64 314 0.0 0.0 0.00 0.31 0.31 93 1011.6
20260904034041 65 314 0.0 0.0 0.00 0.31 0.31 93 1011.6
20260904033936 65 314 0.0 0.0 0.00 0.31 0.31 93 1011.6
20260904033838 65 314 0.0 0.0 0.00 0.31 0.31 93 1011.6
20260904033803 65 314 0.0 0.0 0.00 0.31 0.31 93 1011.6
20260904033706 65 314 0.0 0.0 0.00 0.31 0.31 93 1011.6
20260904033628 65 314 0.0 0.0 0.00 0.31 0.31 93 1011.5
20260904033443 65 314 0.0 0.0 0.00 0.31 0.31 93 1011.5
20260904033337 65 314 0.0 0.0 0.00 0.31 0.31 93 1011.5
20260904033207 65 314 0.0 0.0 0.00 0.31 0.31 93 1011.4
20260904033107 65 314 0.0 0.0 0.00 0.31 0.31 93 1011.4
20260904033000 65 314 0.0 0.0 0.00 0.31 0.31 94 1011.4
20260904032840 65 314 0.0 0.0 0.00 0.31 0.31 94 1011.4
20260904032745 65 314 0.0 0.0 0.00 0.31 0.31 94 1011.4
20260904032626 65 314 0.0 0.0 0.00 0.31 0.31 94 1011.4
20260904032531 65 314 0.0 0.0 0.00 0.31 0.31 93 1011.4
20260904032432 65 314 0.0 0.0 0.00 0.31 0.31 93 1011.4
20260904032357 65 314 0.0 0.0 0.00 0.31 0.31 93 1011.4
20260904032305 65 314 0.0 0.0 0.00 0.31 0.31 93 1011.4
20260904032223 65 314 0.0 0.0 0.00 0.31 0.31 93 1011.4
20260904032029 65 314 0.0 0.0 0.00 0.31 0.31 93 1011.3
20260904031932 65 314 0.0 0.0 0.00 0.31 0.31 93 1011.4
20260904031835 65 314 0.0 0.0 0.00 0.31 0.31 93 1011.4
20260904031755 65 314 0.0 0.0 0.00 0.31 0.31 94 1011.4
20260904031717 65 314 0.0 0.0 0.00 0.31 0.31 94 1011.4
20260904031602 65 314 0.0 0.0 0.00 0.31 0.31 94 1011.4
20260904031525 65 314 0.0 0.0 0.00 0.31 0.31 94 1011.4
20260904031340 65 314 0.0 0.0 0.00 0.31 0.31 94 1011.4
20260904031233 65 314 0.0 0.0 0.00 0.31 0.31 93 1011.4
20260904031155 65 314 0.0 0.0 0.00 0.31 0.31 93 1011.4
20260904031121 65 314 0.0 0.0 0.00 0.31 0.31 93 1011.4
20260904031018 65 314 0.0 0.0 0.00 0.31 0.31 93 1011.4
20260904030823 65 314 0.0 0.0 0.00 0.31 0.31 93 1011.4
20260904030724 65 314 0.0 0.0 0.00 0.31 0.31 93 1011.4
20260904030628 65 314 0.0 0.0 0.00 0.31 0.31 93 1011.4
20260904030550 65 314 0.0 0.0 0.00 0.31 0.31 93 1011.4
20260904030358 65 314 0.0 0.0 0.00 0.31 0.31 94 1011.4
20260904030319 65 314 0.0 0.0 0.00 0.31 0.31 94 1011.5
20260904030128 65 314 0.0 0.0 0.00 0.31 0.31 94 1011.5
20260904030042 65 314 0.0 0.0 0.00 0.31 0.31 94 1011.4
20260904025912 65 314 0.0 0.0 0.00 0.31 0.31 94 1011.5
20260904025834 65 314 0.0 0.0 0.00 0.31 0.31 93 1011.5
20260904025703 65 314 0.0 0.0 0.00 0.31 0.31 93 1011.6
20260904025618 65 314 0.0 0.0 0.00 0.31 0.31 93 1011.6
20260904025429 65 314 0.0 0.0 0.00 0.31 0.31 93 1011.5
20260904025345 65 314 0.0 0.0 0.00 0.31 0.31 93 1011.5
20260904025215 65 314 0.0 0.0 0.00 0.31 0.31 93 1011.5
20260904025116 65 314 0.0 0.0 0.00 0.31 0.31 93 1011.6
20260904024922 65 314 0.0 0.0 0.00 0.31 0.31 93 1011.6
20260904024848 65 314 0.0 0.0 0.00 0.31 0.31 93 1011.6
20260904024656 65 314 0.0 0.0 0.00 0.31 0.31 93 1011.6
20260904024617 65 314 0.0 0.0 0.00 0.31 0.31 93 1011.6
20260904024441 65 314 0.0 0.0 0.00 0.31 0.31 93 1011.6
20260904024344 65 314 0.0 0.0 0.00 0.31 0.31 93 1011.6
20260904024247 65 314 0.0 0.0 0.00 0.31 0.31 93 1011.6
20260904024148 65 314 0.0 0.0 0.00 0.31 0.31 93 1011.7
20260904024018 65 314 0.0 0.0 0.00 0.31 0.31 93 1011.7
20260904023923 65 314 0.0 0.0 0.00 0.31 0.31 93 1011.7
20260904023757 65 314 0.0 0.0 0.00 0.31 0.31 93 1011.6
20260904023656 65 314 0.0 0.0 0.00 0.31 0.31 93 1011.6
20260904023618 65 314 0.0 0.0 0.00 0.31 0.31 93 1011.6
20260904023522 65 314 0.0 0.0 0.00 0.31 0.31 93 1011.6
20260904023423 65 314 0.0 0.0 0.00 0.31 0.31 93 1011.6
20260904023225 65 314 0.0 0.0 0.00 0.31 0.31 93 1011.6
20260904023126 65 314 0.0 0.0 0.00 0.31 0.31 93 1011.6
20260904023031 65 314 0.0 0.0 0.00 0.31 0.31 93 1011.6
20260904022953 65 314 0.0 0.0 0.00 0.31 0.31 93 1011.6
20260904022915 65 314 0.0 0.0 0.00 0.31 0.31 93 1011.7
20260904022757 65 314 0.0 0.0 0.00 0.31 0.31 93 1011.7
20260904022724 65 314 0.0 0.0 0.00 0.31 0.31 93 1011.7
20260904022555 65 314 0.0 0.0 0.00 0.31 0.31 93 1011.6
20260904022510 65 314 0.0 0.0 0.00 0.31 0.31 93 1011.6
20260904022318 65 314 0.0 0.0 0.00 0.31 0.31 93 1011.6
20260904022239 65 314 0.0 0.0 0.00 0.31 0.31 93 1011.6
20260904022110 65 314 0.0 0.0 0.00 0.31 0.31 93 1011.7
20260904022026 65 314 0.0 0.0 0.00 0.31 0.31 93 1011.7
20260904021836 65 314 0.0 0.0 0.00 0.31 0.31 92 1011.7
20260904021732 65 314 0.0 0.0 0.00 0.31 0.31 92 1011.7
20260904021653 65 314 0.0 0.0 0.00 0.31 0.31 92 1011.7
20260904021558 65 314 0.0 0.0 0.00 0.31 0.31 92 1011.7
20260904021523 66 314 0.0 0.0 0.00 0.31 0.31 92 1011.7
20260904021355 66 314 0.0 0.0 0.00 0.31 0.31 92 1011.8
20260904021229 66 314 0.0 0.0 0.00 0.31 0.31 91 1011.8
20260904021200 66 314 0.0 0.0 0.00 0.31 0.31 91 1011.8
20260904021106 66 314 0.0 0.0 0.00 0.31 0.31 92 1011.7
20260904021028 66 314 0.0 0.0 0.00 0.31 0.31 91 1011.7
20260904020841 66 314 0.0 0.0 0.00 0.31 0.31 91 1011.7
20260904020733 66 314 0.0 0.0 0.00 0.31 0.31 92 1011.7
20260904020656 66 314 0.0 0.0 0.00 0.31 0.31 92 1011.7
20260904020524 66 314 0.0 0.0 0.00 0.31 0.31 92 1011.7
20260904020439 66 314 0.0 0.0 0.00 0.31 0.31 91 1011.8
20260904020308 66 314 0.0 0.0 0.00 0.31 0.31 91 1011.8
20260904020230 66 314 0.0 0.0 0.00 0.31 0.31 92 1011.8
20260904015943 66 314 0.0 0.0 0.00 0.31 0.31 92 1011.8
20260904015905 66 314 0.0 0.0 0.00 0.31 0.31 92 1011.8
20260904015807 66 314 0.0 0.0 0.00 0.31 0.31 92 1011.8
20260904015729 66 314 0.0 0.0 0.00 0.31 0.31 92 1011.8
20260904015600 66 314 0.0 0.0 0.00 0.31 0.31 92 1011.8
20260904015516 66 314 0.0 0.0 0.00 0.31 0.31 92 1011.8
20260904015346 66 314 0.0 0.0 0.00 0.31 0.31 91 1011.8
20260904015311 66 314 0.0 0.0 0.00 0.31 0.31 91 1011.9
20260904015232 66 314 0.0 0.0 0.00 0.31 0.31 91 1011.9
20260904015115 66 314 0.0 0.0 0.00 0.31 0.31 91 1011.9
20260904015037 66 314 0.0 0.0 0.00 0.31 0.31 92 1011.9
20260904014906 67 314 0.0 0.0 0.00 0.31 0.31 92 1011.9
20260904014741 67 314 0.0 0.0 0.00 0.31 0.31 91 1011.9
20260904014627 67 314 0.0 0.0 0.00 0.31 0.31 91 1011.9
20260904014547 67 314 0.0 0.0 0.00 0.31 0.31 91 1012.0
20260904014510 67 314 0.0 0.0 0.00 0.31 0.31 91 1011.9
20260904014414 67 314 0.0 0.0 0.00 0.31 0.31 91 1012.0
20260904014335 67 314 0.0 0.0 0.00 0.31 0.31 91 1012.0
20260904014209 67 314 0.0 0.0 0.00 0.31 0.31 91 1012.1
20260904014124 67 314 0.0 0.0 0.00 0.31 0.31 92 1012.1
20260904013934 67 314 0.0 0.0 0.00 0.31 0.31 91 1012.2
20260904013850 67 314 0.0 0.0 0.00 0.31 0.31 91 1012.1
20260904013719 67 314 0.0 0.0 0.00 0.31 0.31 91 1012.0
20260904013640 67 314 0.0 0.0 0.00 0.31 0.31 91 1012.0
20260904013513 67 314 0.0 0.0 0.00 0.31 0.31 91 1012.0
20260904013428 67 314 0.0 0.0 0.00 0.31 0.31 92 1012.0
20260904013240 67 314 0.0 0.0 0.00 0.31 0.31 91 1012.0
20260904013135 67 314 0.0 0.0 0.00 0.31 0.31 92 1011.9
20260904013023 67 314 0.0 0.0 0.00 0.31 0.31 91 1011.9
20260904012943 67 314 0.0 0.0 0.00 0.31 0.31 92 1011.9
20260904012906 67 314 0.0 0.0 0.00 0.31 0.31 92 1011.9
20260904012810 67 314 0.0 0.0 0.00 0.31 0.31 92 1012.0
20260904012731 67 314 0.0 0.0 0.00 0.31 0.31 92 1012.0
20260904012602 67 314 0.0 0.0 0.00 0.31 0.31 92 1011.9
20260904012518 67 314 0.0 0.0 0.00 0.31 0.31 92 1011.9
20260904012347 67 314 0.0 0.0 0.00 0.31 0.31 92 1011.9
20260904012257 67 314 0.0 0.0 0.00 0.31 0.31 92 1011.9
20260904012139 67 314 0.0 0.0 0.00 0.31 0.31 92 1011.8
20260904012026 67 314 0.0 0.0 0.00 0.31 0.31 92 1011.8
20260904011942 67 314 0.0 0.0 0.00 0.31 0.31 92 1011.8
20260904011903 67 314 0.0 0.0 0.00 0.31 0.31 92 1011.8
20260904011825 67 314 0.0 0.0 0.00 0.31 0.31 92 1011.8
20260904011628 67 314 0.0 0.0 0.00 0.31 0.31 92 1011.8
20260904011550 67 314 0.0 0.0 0.00 0.31 0.31 92 1011.8
20260904011455 67 314 0.0 0.0 0.00 0.31 0.31 92 1011.8
20260904011416 67 314 0.0 0.0 0.00 0.31 0.31 92 1011.8
20260904011246 67 314 0.0 0.0 0.00 0.31 0.31 92 1011.7
20260904011201 67 314 0.0 0.0 0.00 0.31 0.31 92 1011.8
20260904011031 67 314 0.0 0.0 0.00 0.31 0.31 92 1011.7
20260904010931 67 314 0.0 0.0 0.00 0.31 0.31 92 1011.6
20260904010836 67 314 0.0 0.0 0.00 0.31 0.31 92 1011.6
20260904010728 67 314 0.0 0.0 0.00 0.31 0.31 92 1011.6
20260904010540 67 314 0.0 0.0 0.00 0.31 0.31 92 1011.7
20260904010455 67 314 0.0 0.0 0.00 0.31 0.31 92 1011.7
20260904010304 67 314 0.0 0.0 0.00 0.31 0.31 92 1011.7
20260904010226 67 314 0.0 0.0 0.00 0.31 0.31 92 1011.7
20260904010029 67 314 0.0 0.0 0.00 0.31 0.31 92 1011.7
20260904005950 67 314 0.0 0.0 0.00 0.31 0.31 92 1011.7
20260904005853 67 314 0.0 0.0 0.00 0.31 0.31 92 1011.6
20260904005733 67 314 0.0 0.0 0.00 0.31 0.31 92 1011.6
20260904005623 67 314 0.0 0.0 0.00 0.31 0.31 92 1011.7
20260904005546 67 314 0.0 0.0 0.00 0.31 0.31 92 1011.7
20260904005409 67 314 0.0 0.0 0.00 0.31 0.31 92 1011.6
20260904005331 67 314 0.0 0.0 0.00 0.31 0.31 92 1011.6
20260904005210 67 314 0.0 0.0 0.00 0.31 0.31 92 1011.5
20260904005126 67 314 0.0 0.0 0.00 0.31 0.31 92 1011.5
20260904004956 67 314 0.0 0.0 0.00 0.31 0.31 92 1011.5
20260904004917 67 314 0.0 0.0 0.00 0.31 0.31 92 1011.4
20260904004747 67 314 0.0 0.0 0.00 0.31 0.31 92 1011.5
20260904004623 67 314 0.0 0.0 0.00 0.31 0.31 91 1011.4
20260904004528 67 314 0.0 0.0 0.00 0.31 0.31 91 1011.4
20260904004450 67 314 0.0 0.0 0.00 0.31 0.31 91 1011.4
20260904004412 67 314 0.0 0.0 0.00 0.31 0.31 92 1011.4
20260904004315 67 314 0.0 0.0 0.00 0.31 0.31 92 1011.4
20260904004237 67 314 0.0 0.0 0.00 0.31 0.31 92 1011.4
20260904004108 68 314 0.0 0.0 0.00 0.31 0.31 92 1011.4
20260904004024 67 314 0.0 0.0 0.00 0.31 0.31 91 1011.4
20260904003853 68 314 0.0 0.0 0.00 0.31 0.31 91 1011.4
20260904003815 68 314 0.0 0.0 0.00 0.31 0.31 91 1011.4
20260904003648 68 314 0.0 0.0 0.00 0.31 0.31 91 1011.3
20260904003524 68 314 0.0 0.0 0.00 0.31 0.31 91 1011.4
20260904003431 68 314 0.0 0.0 0.00 0.31 0.31 91 1011.3
20260904003352 68 314 0.0 0.0 0.00 0.31 0.31 91 1011.3
20260904003221 68 314 0.0 0.0 0.00 0.31 0.31 91 1011.2
20260904003136 68 314 0.0 0.0 0.00 0.31 0.31 91 1011.2
20260904003005 68 314 0.0 0.0 0.00 0.31 0.31 91 1011.3
20260904002928 68 314 0.0 0.0 0.00 0.31 0.31 91 1011.3
20260904002729 68 314 0.0 0.0 0.00 0.31 0.31 91 1011.4
20260904002652 68 314 0.0 0.0 0.00 0.31 0.31 91 1011.3
20260904002537 68 314 0.0 0.0 0.00 0.31 0.31 91 1011.3
20260904002437 68 314 0.0 0.0 0.00 0.31 0.31 91 1011.3
20260904002302 68 314 0.0 0.0 0.00 0.31 0.31 91 1011.2
20260904002227 68 314 0.0 0.0 0.00 0.31 0.31 91 1011.2
20260904002031 68 314 0.0 0.0 0.00 0.31 0.31 91 1011.0
20260904001943 68 314 0.0 0.0 0.00 0.31 0.31 91 1011.0
20260904001826 68 314 0.0 0.0 0.00 0.31 0.31 91 1011.0
20260904001735 68 314 0.0 0.0 0.00 0.31 0.31 91 1011.0
20260904001618 68 314 0.0 0.0 0.00 0.31 0.31 91 1011.0
20260904001540 68 314 0.0 0.0 0.00 0.31 0.31 91 1011.0
20260904001409 68 314 0.0 0.0 0.00 0.31 0.31 91 1011.0
20260904001324 68 314 0.0 0.0 0.00 0.31 0.31 91 1011.0
20260904001140 68 314 0.0 0.0 0.00 0.31 0.31 91 1010.9
20260904001035 68 314 0.0 0.0 0.00 0.31 0.31 90 1010.9
20260904000937 68 314 0.0 0.0 0.00 0.31 0.31 90 1010.9
20260904000901 68 314 0.0 0.0 0.00 0.31 0.31 90 1010.9
20260904000801 68 314 0.0 0.0 0.00 0.31 0.31 90 1010.8
20260904000626 68 314 0.0 0.0 0.00 0.31 0.31 90 1010.8
20260904000546 68 314 0.0 0.0 0.00 0.31 0.31 90 1010.8
20260904000418 68 314 0.0 0.0 0.00 0.31 0.31 90 1010.7
20260904000334 68 314 0.0 0.0 0.00 0.31 0.31 90 1010.7
20260904000147 68 314 0.0 0.0 0.00 0.31 0.31 90 1010.7
20260904000043 68 314 0.0 0.0 0.00 0.31 0.31 90 1010.7
20260903235852 68 314 0.0 0.0 0.00 0.31 0.31 90 1010.6
20260903235752 68 314 0.0 0.0 0.00 0.31 0.31 90 1010.6
20260903235714 69 314 0.0 0.0 0.00 0.31 0.31 90 1010.6
20260903235556 69 314 0.0 0.0 0.00 0.31 0.31 90 1010.6
20260903235519 69 314 0.0 0.0 0.00 0.31 0.31 89 1010.6
20260903235324 69 314 0.0 0.0 0.00 0.31 0.31 89 1010.6
20260903235224 69 314 0.0 0.0 0.00 0.31 0.31 89 1010.6
20260903235130 69 314 0.0 0.0 0.00 0.31 0.31 89 1010.6
20260903235051 69 314 0.0 0.0 0.00 0.31 0.31 89 1010.6
20260903235017 69 314 0.0 0.0 0.00 0.31 0.31 89 1010.7
20260903234858 69 314 0.0 0.0 0.00 0.31 0.31 89 1010.7
20260903234759 69 314 0.0 0.0 0.00 0.31 0.31 89 1010.7
20260903234628 69 314 0.0 0.0 0.00 0.31 0.31 89 1010.6
20260903234523 69 314 0.0 0.0 0.00 0.31 0.31 89 1010.6
20260903234333 69 314 0.0 0.0 0.00 0.31 0.31 88 1010.5
20260903234247 69 314 0.0 0.0 0.00 0.31 0.31 88 1010.6
20260903234116 69 314 0.0 0.0 0.00 0.31 0.31 88 1010.6
20260903234016 69 314 0.0 0.0 0.00 0.31 0.31 88 1010.6
20260903233847 70 314 0.0 0.0 0.00 0.31 0.31 88 1010.6
20260903233740 70 314 0.0 0.0 0.00 0.31 0.31 88 1010.6
20260903233705 70 314 0.0 0.0 0.00 0.31 0.31 88 1010.6
20260903233609 70 314 0.0 0.0 0.00 0.31 0.31 88 1010.6
20260903233531 70 314 0.0 0.0 0.00 0.31 0.31 87 1010.6
20260903233336 70 314 0.0 0.0 0.00 0.31 0.31 87 1010.6
20260903233237 70 314 0.0 0.0 0.00 0.31 0.31 87 1010.6
20260903233142 70 314 0.0 0.0 0.00 0.31 0.31 87 1010.5
20260903233045 70 314 0.0 0.0 0.00 0.31 0.31 88 1010.6
20260903232926 70 314 0.0 0.0 0.00 0.31 0.31 88 1010.6
20260903232848 70 314 0.0 0.0 0.00 0.31 0.31 87 1010.6
20260903232808 70 314 0.0 0.0 0.00 0.31 0.31 87 1010.6
20260903232716 70 314 0.0 0.0 0.00 0.31 0.31 87 1010.5
20260903232636 70 314 0.0 0.0 0.00 0.31 0.31 87 1010.5
20260903232506 71 314 0.0 0.0 0.00 0.31 0.31 86 1010.4
20260903232421 71 314 0.0 0.0 0.00 0.31 0.31 86 1010.4
20260903232251 71 314 0.0 0.0 0.00 0.31 0.31 86 1010.3
20260903232212 71 314 0.0 0.0 0.00 0.31 0.31 86 1010.3
20260903232041 71 314 0.0 0.0 0.00 0.31 0.31 86 1010.3
20260903231934 71 314 0.0 0.0 0.00 0.31 0.31 86 1010.3
20260903231804 71 314 0.0 0.0 0.00 0.31 0.31 86 1010.2
20260903231726 71 314 0.0 0.0 0.00 0.31 0.31 85 1010.2
20260903231528 72 314 0.0 0.0 0.00 0.31 0.31 86 1010.2
20260903231450 72 314 0.0 1.0 0.00 0.31 0.31 86 1010.3
20260903231340 72 314 0.0 1.0 0.00 0.31 0.31 86 1010.3
20260903231303 72 314 0.0 1.0 0.00 0.31 0.31 86 1010.2
20260903231155 72 314 0.0 1.0 0.00 0.31 0.31 86 1010.3
20260903231117 72 314 0.0 1.0 0.00 0.31 0.31 86 1010.3
20260903231039 72 217 0.0 1.0 0.00 0.31 0.31 85 1010.3
20260903230842 72 217 0.0 1.0 0.00 0.31 0.31 84 1010.3
20260903230804 72 217 0.0 1.0 0.00 0.31 0.31 84 1010.3
20260903230707 73 217 0.0 1.0 0.00 0.31 0.31 85 1010.2
20260903230628 73 217 0.0 1.0 0.00 0.31 0.31 84 1010.2
20260903230440 73 217 0.0 2.0 0.00 0.31 0.31 84 1010.3
20260903230338 73 217 0.0 2.0 0.00 0.31 0.31 85 1010.3
20260903230223 73 217 0.0 2.0 0.00 0.31 0.31 85 1010.4
20260903230145 73 217 0.0 2.0 0.00 0.31 0.31 85 1010.4
20260903230014 73 217 0.0 2.0 0.00 0.31 0.31 84 1010.4
20260903225929 73 217 0.0 2.0 0.00 0.31 0.31 83 1010.4
20260903225759 74 217 1.0 2.0 0.00 0.31 0.31 83 1010.3
20260903225723 74 217 1.0 2.0 0.00 0.31 0.31 83 1010.3
20260903225637 74 217 0.0 5.0 0.00 0.31 0.31 83 1010.2
20260903225426 74 217 0.0 5.0 0.00 0.31 0.31 85 1010.3
20260903225318 74 217 0.0 5.0 0.00 0.31 0.31 85 1010.3
20260903225152 74 217 1.0 5.0 0.00 0.31 0.31 84 1010.3
20260903225115 74 188 1.0 5.0 0.00 0.31 0.31 83 1010.2
20260903224945 75 156 1.0 5.0 0.00 0.31 0.31 83 1010.1
20260903224839 75 156 2.0 5.0 0.00 0.31 0.31 83 1010.0
20260903224724 75 156 2.0 5.0 0.00 0.31 0.31 83 1010.0
20260903224646 75 189 2.0 3.0 0.00 0.31 0.31 83 1010.0
20260903224516 75 245 1.0 2.0 0.00 0.31 0.31 83 1010.2
20260903224431 75 281 1.0 1.0 0.00 0.31 0.31 82 1010.2
20260903224240 76 281 0.0 1.0 0.00 0.31 0.31 82 1010.3
20260903224140 76 281 1.0 1.0 0.00 0.31 0.31 82 1010.3
20260903224025 76 281 0.0 1.0 0.00 0.31 0.31 82 1010.4
20260903223946 76 281 0.0 1.0 0.00 0.31 0.31 82 1010.4
20260903223816 76 281 0.0 2.0 0.00 0.31 0.31 82 1010.3
20260903223730 76 281 0.0 2.0 0.00 0.31 0.31 82 1010.3
20260903223631 76 281 0.0 2.0 0.00 0.31 0.31 82 1010.3
20260903223501 77 281 0.0 2.0 0.00 0.31 0.31 80 1010.4
20260903223417 77 281 0.0 2.0 0.00 0.31 0.31 81 1010.4
20260903223235 77 281 1.0 3.0 0.00 0.31 0.31 78 1010.4
20260903223141 77 281 1.0 3.0 0.00 0.31 0.31 79 1010.4
20260903222824 77 177 0.0 3.0 0.00 0.31 0.31 78 1010.2
20260903222725 77 177 1.0 3.0 0.00 0.31 0.31 78 1010.1
20260903222629 77 177 1.0 3.0 0.00 0.31 0.31 78 1010.1
20260903222551 77 177 1.0 3.0 0.00 0.31 0.31 78 1010.2
20260903222420 78 251 1.0 3.0 0.00 0.31 0.31 79 1010.2
20260903222334 78 251 2.0 3.0 0.00 0.31 0.31 79 1010.2
20260903222144 78 249 2.0 3.0 0.00 0.31 0.31 76 1010.3
20260903222024 78 151 2.0 3.0 0.00 0.31 0.31 79 1010.3
20260903221929 78 139 2.0 3.0 0.00 0.31 0.31 79 1010.3
20260903221849 78 107 1.0 3.0 0.00 0.31 0.31 79 1010.3
20260903221719 78 61 1.0 2.0 0.00 0.31 0.31 79 1010.4
20260903221634 78 22 0.0 2.0 0.00 0.31 0.31 79 1010.4
20260903221504 78 319 0.0 2.0 0.00 0.31 0.31 77 1010.4
20260903221425 78 319 1.0 2.0 0.00 0.31 0.31 77 1010.4
20260903221227 78 319 0.0 3.0 0.00 0.31 0.31 77 1010.3
20260903221148 78 319 0.0 3.0 0.00 0.31 0.31 76 1010.3
20260903221033 78 319 0.0 3.0 0.00 0.31 0.31 76 1010.3
20260903220958 78 319 0.0 3.0 0.00 0.31 0.31 77 1010.3
20260903220921 79 319 0.0 3.0 0.00 0.31 0.31 77 1010.3
20260903220803 79 319 0.0 3.0 0.00 0.31 0.31 77 1010.4
20260903220725 79 319 1.0 3.0 0.00 0.31 0.31 77 1010.4
20260903220529 79 319 2.0 3.0 0.00 0.31 0.31 77 1010.4
20260903220430 79 319 2.0 3.0 0.00 0.31 0.31 77 1010.5
20260903220333 79 308 2.0 3.0 0.00 0.31 0.31 77 1010.4
20260903220233 79 309 2.0 3.0 0.00 0.31 0.31 77 1010.4
20260903220019 79 288 0.0 0.0 0.00 0.31 0.31 75 1010.3
20260903215832 79 288 0.0 0.0 0.00 0.31 0.31 76 1010.2
20260903215745 79 288 0.0 0.0 0.00 0.31 0.31 76 1010.3
20260903215615 79 288 0.0 0.0 0.00 0.31 0.31 76 1010.2
20260903215537 79 287 0.0 2.0 0.00 0.31 0.31 76 1010.2
20260903215340 79 243 0.0 2.0 0.00 0.31 0.31 75 1010.3
20260903215242 79 243 0.0 2.0 0.00 0.31 0.31 74 1010.3
20260903215126 79 243 0.0 4.0 0.00 0.31 0.31 74 1010.4
20260903215049 79 243 0.0 4.0 0.00 0.31 0.31 74 1010.4
20260903215013 79 243 0.0 4.0 0.00 0.31 0.31 74 1010.4
20260903214854 79 243 0.0 4.0 0.00 0.31 0.31 73 1010.4
20260903214815 79 243 1.0 4.0 0.00 0.31 0.31 71 1010.5
20260903214627 79 244 0.0 4.0 0.00 0.31 0.31 74 1010.5
20260903214521 79 252 1.0 4.0 0.00 0.31 0.31 74 1010.5
20260903214331 79 252 1.0 4.0 0.00 0.31 0.31 74 1010.5
20260903214246 79 198 1.0 4.0 0.00 0.31 0.31 74 1010.5
20260903214055 79 223 2.0 4.0 0.00 0.31 0.31 72 1010.4
20260903214016 79 221 2.0 4.0 0.00 0.31 0.31 73 1010.3
20260903213842 79 236 1.0 4.0 0.00 0.31 0.31 74 1010.3
20260903213742 79 214 1.0 3.0 0.00 0.31 0.31 73 1010.2
20260903213626 79 214 1.0 4.0 0.00 0.31 0.31 73 1010.2
20260903213547 79 214 1.0 4.0 0.00 0.31 0.31 72 1010.1
20260903213454 79 227 1.0 4.0 0.00 0.31 0.31 72 1010.1
20260903213336 80 229 1.0 4.0 0.00 0.31 0.31 71 1010.0
20260903213258 80 215 1.0 5.0 0.00 0.31 0.31 72 1010.1
20260903213141 80 204 2.0 9.0 0.00 0.31 0.31 71 1010.1
20260903213102 80 204 2.0 9.0 0.00 0.31 0.31 71 1010.1
20260903213025 80 187 2.0 9.0 0.00 0.31 0.31 71 1010.1
20260903212907 80 215 3.0 9.0 0.00 0.31 0.31 71 1010.1
20260903212829 80 193 3.0 9.0 0.00 0.31 0.31 70 1010.1
20260903212658 80 189 2.0 9.0 0.00 0.31 0.31 70 1010.2
20260903212614 80 219 2.0 9.0 0.00 0.31 0.31 70 1010.3
20260903212445 81 231 4.0 10.0 0.00 0.31 0.31 70 1010.3
20260903212344 81 178 4.0 10.0 0.00 0.31 0.31 70 1010.4
20260903212259 81 148 2.0 10.0 0.00 0.31 0.31 70 1010.4
20260903212142 81 219 3.0 10.0 0.00 0.31 0.31 71 1010.4
20260903212104 81 198 3.0 10.0 0.00 0.31 0.31 69 1010.4
20260903211913 81 186 3.0 10.0 0.00 0.31 0.31 71 1010.3
20260903211829 81 162 4.0 10.0 0.00 0.31 0.31 69 1010.3
20260903211700 81 200 6.0 10.0 0.00 0.31 0.31 68 1010.3
20260903211622 82 227 5.0 10.0 0.00 0.31 0.31 69 1010.3
20260903211442 82 223 5.0 9.0 0.00 0.31 0.31 69 1010.3
20260903211403 82 212 5.0 9.0 0.00 0.31 0.31 69 1010.2
20260903211207 82 194 4.0 9.0 0.00 0.31 0.31 70 1010.2
20260903211140 82 194 4.0 9.0 0.00 0.31 0.31 70 1010.2
20260903211009 81 192 4.0 9.0 0.00 0.31 0.31 69 1010.2
20260903210912 81 161 4.0 9.0 0.00 0.31 0.31 69 1010.2
20260903210755 81 178 4.0 9.0 0.00 0.31 0.31 68 1010.2
20260903210716 81 173 3.0 9.0 0.00 0.31 0.31 68 1010.3
20260903210546 81 168 4.0 9.0 0.00 0.31 0.31 69 1010.2
20260903210441 81 123 5.0 9.0 0.00 0.31 0.31 67 1010.2
20260903210403 81 157 5.0 9.0 0.00 0.31 0.31 67 1010.3
20260903210317 81 200 6.0 9.0 0.00 0.31 0.31 66 1010.2
20260903210218 81 147 6.0 9.0 0.00 0.31 0.31 66 1010.2
20260903210048 81 184 3.0 8.0 0.00 0.31 0.31 69 1010.2
20260903205942 81 166 2.0 8.0 0.00 0.31 0.31 68 1010.1
20260903205915 81 223 2.0 8.0 0.00 0.31 0.31 69 1010.2
20260903205821 81 221 1.0 8.0 0.00 0.31 0.31 68 1010.2
20260903205734 81 164 2.0 8.0 0.00 0.31 0.31 67 1010.2
20260903205524 81 178 4.0 8.0 0.00 0.31 0.31 67 1010.2
20260903205437 81 166 4.0 8.0 0.00 0.31 0.31 67 1010.2
20260903205307 81 188 3.0 9.0 0.00 0.31 0.31 67 1010.2
20260903205219 82 165 2.0 9.0 0.00 0.31 0.31 69 1010.2
20260903205024 81 202 4.0 9.0 0.00 0.31 0.31 68 1010.2
20260903204937 81 157 4.0 9.0 0.00 0.31 0.31 68 1010.2
20260903204839 81 175 2.0 9.0 0.00 0.31 0.31 69 1010.2
20260903204808 81 271 2.0 9.0 0.00 0.31 0.31 68 1010.2
20260903204708 81 219 3.0 9.0 0.00 0.31 0.31 68 1010.2
20260903204516 81 215 6.0 9.0 0.00 0.31 0.31 67 1010.2
20260903204428 81 239 6.0 9.0 0.00 0.31 0.31 68 1010.2
20260903204258 81 221 5.0 9.0 0.00 0.31 0.31 68 1010.2
20260903204221 81 171 5.0 9.0 0.00 0.31 0.31 67 1010.1
20260903204025 81 201 2.0 8.0 0.00 0.31 0.31 68 1010.1
20260903203946 81 190 2.0 8.0 0.00 0.31 0.31 69 1010.1
20260903203849 81 215 3.0 8.0 0.00 0.31 0.31 69 1010.1
20260903203730 81 192 4.0 8.0 0.00 0.31 0.31 69 1010.2
20260903203634 81 142 4.0 8.0 0.00 0.31 0.31 68 1010.2
20260903203540 82 167 4.0 10.0 0.00 0.31 0.31 68 1010.2
20260903203504 82 202 4.0 10.0 0.00 0.31 0.31 68 1010.2
20260903203407 82 200 4.0 10.0 0.00 0.31 0.31 68 1010.2
20260903203329 82 191 3.0 10.0 0.00 0.31 0.31 68 1010.2
20260903203158 82 153 2.0 10.0 0.00 0.31 0.31 69 1010.1
20260903203115 82 115 3.0 10.0 0.00 0.31 0.31 71 1010.1
20260903202924 82 128 6.0 10.0 0.00 0.31 0.31 69 1010.1
20260903202818 82 192 5.0 10.0 0.00 0.31 0.31 68 1010.1
20260903202750 82 166 4.0 10.0 0.00 0.31 0.31 69 1010.2
20260903202654 82 215 3.0 10.0 0.00 0.31 0.31 71 1010.1
20260903202620 82 178 4.0 10.0 0.00 0.31 0.31 71 1010.1
20260903202425 82 185 4.0 10.0 0.00 0.31 0.31 69 1010.1
20260903202326 82 159 5.0 10.0 0.00 0.31 0.31 71 1010.2
20260903202229 82 132 6.0 10.0 0.00 0.31 0.31 71 1010.2
20260903202130 82 136 5.0 8.0 0.00 0.31 0.31 71 1010.2
20260903202054 82 151 4.0 7.0 0.00 0.31 0.31 69 1010.1
20260903201936 82 151 4.0 7.0 0.00 0.31 0.31 70 1010.1
20260903201858 82 136 4.0 7.0 0.00 0.31 0.31 69 1010.2
20260903201750 82 169 2.0 8.0 0.00 0.31 0.31 70 1010.2
20260903201713 82 198 3.0 8.0 0.00 0.31 0.31 69 1010.2
20260903201636 81 200 2.0 8.0 0.00 0.31 0.31 72 1010.2
20260903201437 81 138 3.0 8.0 0.00 0.31 0.31 71 1010.2
20260903201340 81 231 3.0 9.0 0.00 0.31 0.31 70 1010.3
20260903201225 81 205 4.0 9.0 0.00 0.31 0.31 69 1010.3
20260903201146 81 213 4.0 9.0 0.00 0.31 0.31 71 1010.3
20260903201043 81 180 4.0 9.0 0.00 0.31 0.31 70 1010.3
20260903201003 81 235 4.0 9.0 0.00 0.31 0.31 71 1010.2
20260903200823 81 171 5.0 12.0 0.00 0.31 0.31 71 1010.2
20260903200727 81 180 5.0 12.0 0.00 0.31 0.31 69 1010.2
20260903200626 81 147 5.0 12.0 0.00 0.31 0.31 70 1010.2
20260903200456 81 217 3.0 12.0 0.00 0.31 0.31 70 1010.3
20260903200420 81 222 4.0 12.0 0.00 0.31 0.31 70 1010.3
20260903200240 81 175 5.0 12.0 0.00 0.31 0.31 69 1010.3
20260903200031 81 197 6.0 12.0 0.00 0.31 0.31 68 1010.3
20260903195925 82 220 4.0 9.0 0.00 0.31 0.31 69 1010.2
20260903195848 81 224 4.0 8.0 0.00 0.31 0.31 70 1010.3
20260903195733 81 180 3.0 8.0 0.00 0.31 0.31 70 1010.3
20260903195700 81 198 4.0 8.0 0.00 0.31 0.31 71 1010.3
20260903195625 81 205 4.0 8.0 0.00 0.31 0.31 71 1010.3
20260903195437 81 208 3.0 8.0 0.00 0.31 0.31 71 1010.3
20260903195331 81 188 2.0 8.0 0.00 0.31 0.31 70 1010.2
20260903195224 81 126 3.0 8.0 0.00 0.31 0.31 69 1010.2
20260903195148 81 153 4.0 8.0 0.00 0.31 0.31 68 1010.2
20260903195110 81 137 5.0 8.0 0.00 0.31 0.31 69 1010.3
20260903195016 81 138 4.0 8.0 0.00 0.31 0.31 69 1010.3
20260903194937 81 157 3.0 8.0 0.00 0.31 0.31 69 1010.3
20260903194807 81 157 4.0 8.0 0.00 0.31 0.31 71 1010.3
20260903194712 81 138 4.0 8.0 0.00 0.31 0.31 70 1010.3
20260903194516 81 130 3.0 8.0 0.00 0.31 0.31 72 1010.3
20260903194442 81 162 4.0 8.0 0.00 0.31 0.31 70 1010.3
20260903194312 81 148 3.0 10.0 0.00 0.31 0.31 71 1010.4
20260903194232 81 153 3.0 10.0 0.00 0.31 0.31 72 1010.4
20260903194035 81 164 4.0 10.0 0.00 0.31 0.31 71 1010.4
20260903193956 81 163 5.0 10.0 0.00 0.31 0.31 71 1010.4
20260903193900 81 128 4.0 10.0 0.00 0.31 0.31 72 1010.4
20260903193822 81 119 5.0 10.0 0.00 0.31 0.31 73 1010.4
20260903193744 80 164 5.0 10.0 0.00 0.31 0.31 73 1010.4
20260903193619 80 200 7.0 10.0 0.00 0.31 0.31 72 1010.5
20260903193532 80 171 7.0 10.0 0.00 0.31 0.31 70 1010.5
20260903193344 81 167 5.0 10.0 0.00 0.31 0.31 71 1010.5
20260903193239 81 167 3.0 10.0 0.00 0.31 0.31 73 1010.5
20260903193124 80 179 4.0 10.0 0.00 0.31 0.31 71 1010.5
20260903193044 80 184 6.0 10.0 0.00 0.31 0.31 71 1010.5
20260903193006 80 202 7.0 10.0 0.00 0.31 0.31 71 1010.5
20260903192840 80 207 4.0 11.0 0.00 0.31 0.31 73 1010.5
20260903192740 80 184 3.0 11.0 0.00 0.31 0.31 73 1010.6
20260903192627 80 127 5.0 11.0 0.00 0.31 0.31 72 1010.5
20260903192548 80 109 6.0 11.0 0.00 0.31 0.31 72 1010.6
20260903192442 80 205 6.0 11.0 0.00 0.31 0.31 71 1010.5
20260903192405 80 139 6.0 11.0 0.00 0.31 0.31 73 1010.5
20260903192240 80 131 7.0 11.0 0.00 0.31 0.31 71 1010.5
20260903192159 80 155 6.0 11.0 0.00 0.31 0.31 72 1010.5
20260903192042 80 161 5.0 10.0 0.00 0.31 0.31 71 1010.5
20260903191942 80 180 5.0 11.0 0.00 0.31 0.31 71 1010.5
20260903191813 80 154 6.0 11.0 0.00 0.31 0.31 72 1010.5
20260903191726 80 138 7.0 13.0 0.00 0.31 0.31 72 1010.5
20260903191541 80 159 6.0 13.0 0.00 0.31 0.31 72 1010.5
20260903191435 80 191 5.0 13.0 0.00 0.31 0.31 72 1010.5
20260903191358 80 108 4.0 13.0 0.00 0.31 0.31 74 1010.5
20260903191317 80 145 5.0 13.0 0.00 0.31 0.31 73 1010.5
20260903191231 80 150 6.0 13.0 0.00 0.31 0.31 72 1010.5
20260903191014 80 175 7.0 13.0 0.00 0.31 0.31 72 1010.6
20260903190926 80 134 8.0 13.0 0.00 0.31 0.31 72 1010.6
20260903190829 80 137 7.0 13.0 0.00 0.31 0.31 73 1010.6
20260903190753 80 157 7.0 13.0 0.00 0.31 0.31 73 1010.6
20260903190713 80 150 6.0 11.0 0.00 0.31 0.31 72 1010.6
20260903190618 81 119 5.0 11.0 0.00 0.31 0.31 73 1010.6
20260903190540 80 169 5.0 11.0 0.00 0.31 0.31 73 1010.6
20260903190409 81 190 6.0 14.0 0.00 0.31 0.31 72 1010.6
20260903190242 80 184 3.0 14.0 0.00 0.31 0.31 74 1010.7
20260903190125 80 161 4.0 14.0 0.00 0.31 0.31 72 1010.6
20260903190046 80 195 5.0 14.0 0.00 0.31 0.31 72 1010.6
20260903185918 80 186 6.0 14.0 0.00 0.31 0.31 74 1010.6
20260903185833 80 177 7.0 14.0 0.00 0.31 0.31 72 1010.6
20260903185702 80 127 6.0 14.0 0.00 0.31 0.31 73 1010.6
20260903185605 80 171 6.0 14.0 0.00 0.31 0.31 72 1010.7
20260903185429 80 136 3.0 11.0 0.00 0.31 0.31 72 1010.7
20260903185351 80 149 3.0 11.0 0.00 0.31 0.31 73 1010.7
20260903185313 80 184 3.0 11.0 0.00 0.31 0.31 73 1010.7
20260903185217 80 211 6.0 11.0 0.00 0.31 0.31 71 1010.7
20260903185138 80 231 6.0 11.0 0.00 0.31 0.31 71 1010.7
20260903185009 80 157 6.0 11.0 0.00 0.31 0.31 71 1010.8
20260903184902 80 159 5.0 11.0 0.00 0.31 0.31 70 1010.8
20260903184730 80 234 5.0 11.0 0.00 0.31 0.31 72 1010.8
20260903184630 80 194 5.0 11.0 0.00 0.31 0.31 72 1010.8
20260903184433 80 125 6.0 11.0 0.00 0.31 0.31 73 1010.8
20260903184358 80 150 6.0 11.0 0.00 0.31 0.31 73 1010.9
20260903184223 80 153 7.0 11.0 0.00 0.31 0.31 71 1010.9
20260903184137 80 187 7.0 11.0 0.00 0.31 0.31 72 1010.8
20260903184007 80 159 7.0 11.0 0.00 0.31 0.31 71 1010.8
20260903183929 80 186 6.0 10.0 0.00 0.31 0.31 71 1010.8
20260903183732 80 145 7.0 11.0 0.00 0.31 0.31 72 1010.9
20260903183656 80 211 6.0 11.0 0.00 0.31 0.31 72 1010.9
20260903183541 80 199 6.0 11.0 0.00 0.31 0.31 73 1011.0
20260903183504 80 191 7.0 11.0 0.00 0.31 0.31 73 1011.0
20260903183316 80 144 6.0 11.0 0.00 0.31 0.31 71 1010.9
20260903183232 80 145 6.0 11.0 0.00 0.31 0.31 72 1010.9
20260903183102 80 174 6.0 11.0 0.00 0.31 0.31 74 1010.9
20260903183024 80 224 7.0 11.0 0.00 0.31 0.31 73 1010.9
20260903182848 80 153 8.0 11.0 0.00 0.31 0.31 70 1010.9
20260903182820 80 146 8.0 11.0 0.00 0.31 0.31 72 1010.9
20260903182633 80 241 4.0 10.0 0.00 0.31 0.31 73 1010.9
20260903182526 80 232 5.0 10.0 0.00 0.31 0.31 74 1011.0
20260903182448 80 190 5.0 10.0 0.00 0.31 0.31 73 1011.0
20260903182326 80 192 6.0 10.0 0.00 0.31 0.31 73 1011.0
20260903182239 80 210 6.0 10.0 0.00 0.31 0.31 73 1011.0
20260903182030 79 201 4.0 11.0 0.00 0.31 0.31 74 1011.0
20260903181925 79 142 6.0 11.0 0.00 0.31 0.31 74 1011.1
20260903181849 79 229 6.0 11.0 0.00 0.31 0.31 73 1011.1
20260903181752 79 184 8.0 11.0 0.00 0.31 0.31 73 1011.0
20260903181714 79 171 7.0 11.0 0.00 0.31 0.31 73 1011.0
20260903181544 80 173 4.0 11.0 0.00 0.31 0.31 74 1011.0
20260903181439 79 96 4.0 11.0 0.00 0.31 0.31 76 1011.1
20260903181326 79 175 6.0 11.0 0.00 0.31 0.31 75 1011.0
20260903181247 79 169 6.0 12.0 0.00 0.31 0.31 74 1011.1
20260903181116 79 144 4.0 10.0 0.00 0.31 0.31 76 1011.1
20260903181031 79 140 4.0 10.0 0.00 0.31 0.31 76 1011.1
20260903180840 79 211 6.0 10.0 0.00 0.31 0.31 75 1011.1
20260903180752 79 167 6.0 10.0 0.00 0.31 0.31 74 1011.1
20260903180636 79 205 6.0 10.0 0.00 0.31 0.31 75 1011.2
20260903180557 79 202 6.0 11.0 0.00 0.31 0.31 75 1011.1
20260903180519 79 178 6.0 11.0 0.00 0.31 0.31 76 1011.2
20260903180421 78 179 7.0 11.0 0.00 0.31 0.31 75 1011.2
20260903180320 78 188 7.0 11.0 0.00 0.31 0.31 75 1011.2
20260903180152 78 197 6.0 11.0 0.00 0.31 0.31 75 1011.1
20260903180048 78 167 6.0 11.0 0.00 0.31 0.31 76 1011.1
20260903175918 78 224 5.0 11.0 0.00 0.31 0.31 75 1011.2
20260903175839 78 203 6.0 11.0 0.00 0.31 0.31 75 1011.2
20260903175641 78 236 7.0 11.0 0.00 0.31 0.31 77 1011.2
20260903175602 78 220 7.0 10.0 0.00 0.31 0.31 77 1011.1
20260903175504 78 154 5.0 10.0 0.00 0.31 0.31 77 1011.2
20260903175404 78 157 6.0 10.0 0.00 0.31 0.31 76 1011.2
20260903175233 77 150 5.0 11.0 0.00 0.31 0.31 77 1011.2
20260903175126 77 165 3.0 10.0 0.00 0.31 0.31 78 1011.2
20260903174935 77 232 5.0 10.0 0.00 0.31 0.31 77 1011.2
20260903174834 77 183 5.0 10.0 0.00 0.31 0.31 78 1011.2
20260903174727 77 232 4.0 10.0 0.00 0.31 0.31 79 1011.1
20260903174628 77 161 6.0 10.0 0.00 0.31 0.31 78 1011.2
20260903174438 77 188 6.0 11.0 0.00 0.31 0.31 79 1011.3
20260903174331 77 175 6.0 10.0 0.00 0.31 0.31 78 1011.3
20260903174253 77 153 7.0 10.0 0.00 0.31 0.31 78 1011.3
20260903174155 77 157 6.0 10.0 0.00 0.31 0.31 77 1011.4
20260903174117 77 186 5.0 10.0 0.00 0.31 0.31 78 1011.3
20260903173946 77 182 7.0 10.0 0.00 0.31 0.31 77 1011.4
20260903173827 77 180 6.0 10.0 0.00 0.31 0.31 76 1011.4
20260903173730 77 253 6.0 9.0 0.00 0.31 0.31 77 1011.4
20260903173651 77 196 5.0 9.0 0.00 0.31 0.31 77 1011.4
20260903173521 77 183 5.0 10.0 0.00 0.31 0.31 78 1011.4
20260903173434 77 128 6.0 10.0 0.00 0.31 0.31 78 1011.4